Time,TemperatureF,DewpointF,PressureIn,WindDirection,WindDirectionDegrees,WindSpeedMPH,WindSpeedGustMPH,Humidity,HourlyPrecipIn,Conditions,Clouds,dailyrainin,SoftwareType,DateUTC
2013-06-14 00:00:00,74.2,66.5,29.71,NW,321,0.0,0.0,77,0.00,,,0.00,Wunderground v.1.15,2013-06-14 05:00:00,
2013-06-14 00:01:00,74.2,66.5,29.71,NW,321,0.0,0.0,77,0.00,,,0.00,Wunderground v.1.15,2013-06-14 05:01:00,
2013-06-14 00:02:00,74.1,66.8,29.71,NW,321,0.0,0.0,78,0.00,,,0.00,Wunderground v.1.15,2013-06-14 05:02:00,
2013-06-14 00:04:00,73.8,66.5,29.71,NW,321,0.0,0.0,78,0.00,,,0.00,Wunderground v.1.15,2013-06-14 05:04:00,
2013-06-14 00:06:00,73.7,66.4,29.71,NW,321,0.0,0.0,78,0.00,,,0.00,Wunderground v.1.15,2013-06-14 05:06:00,
2013-06-14 00:10:00,73.4,66.1,29.71,NW,321,0.0,0.0,78,0.00,,,0.00,Wunderground v.1.15,2013-06-14 05:10:00,
2013-06-14 00:11:00,73.5,66.2,29.71,NW,321,0.0,0.0,78,0.00,,,0.00,Wunderground v.1.15,2013-06-14 05:11:00,
2013-06-14 00:12:00,73.4,66.1,29.71,NW,321,0.0,0.0,78,0.00,,,0.00,Wunderground v.1.15,2013-06-14 05:12:00,
2013-06-14 00:13:00,73.5,66.2,29.71,NW,321,0.0,0.0,78,0.00,,,0.00,Wunderground v.1.15,2013-06-14 05:13:00,
2013-06-14 00:14:00,73.5,66.2,29.71,NW,321,0.0,0.0,78,0.00,,,0.00,Wunderground v.1.15,2013-06-14 05:14:00,
2013-06-14 00:18:00,73.6,66.7,29.71,NW,321,0.0,0.0,79,0.00,,,0.00,Wunderground v.1.15,2013-06-14 05:18:00,
2013-06-14 00:19:00,73.6,66.7,29.71,NW,321,0.0,0.0,79,0.00,,,0.00,Wunderground v.1.15,2013-06-14 05:19:00,
2013-06-14 00:21:00,73.6,66.3,29.71,NW,321,0.0,0.0,78,0.00,,,0.00,Wunderground v.1.15,2013-06-14 05:21:00,
2013-06-14 00:24:00,73.6,66.7,29.71,NW,321,0.0,0.0,79,0.00,,,0.00,Wunderground v.1.15,2013-06-14 05:24:00,
2013-06-14 00:25:00,73.5,66.6,29.71,NW,321,0.0,0.0,79,0.00,,,0.00,Wunderground v.1.15,2013-06-14 05:25:00,
2013-06-14 00:28:00,73.4,66.5,29.70,NW,321,0.0,0.0,79,0.00,,,0.00,Wunderground v.1.15,2013-06-14 05:28:00,
2013-06-14 00:29:00,73.4,66.5,29.70,NW,321,0.0,0.0,79,0.00,,,0.00,Wunderground v.1.15,2013-06-14 05:29:00,
2013-06-14 00:32:00,73.3,66.8,29.70,NW,321,0.0,0.0,80,0.00,,,0.00,Wunderground v.1.15,2013-06-14 05:32:00,
2013-06-14 00:33:00,73.3,66.8,29.70,NW,321,0.0,0.0,80,0.00,,,0.00,Wunderground v.1.15,2013-06-14 05:33:00,
2013-06-14 00:34:00,73.2,66.7,29.70,NW,321,0.0,0.0,80,0.00,,,0.00,Wunderground v.1.15,2013-06-14 05:34:00,
2013-06-14 00:38:00,73.1,66.6,29.71,NW,321,0.0,0.0,80,0.00,,,0.00,Wunderground v.1.15,2013-06-14 05:38:00,
2013-06-14 00:39:00,73.0,66.5,29.70,NW,321,0.0,0.0,80,0.00,,,0.00,Wunderground v.1.15,2013-06-14 05:39:00,
2013-06-14 00:41:00,72.8,66.6,29.70,NW,321,0.0,0.0,81,0.00,,,0.00,Wunderground v.1.15,2013-06-14 05:41:00,
2013-06-14 00:42:00,72.8,66.6,29.70,NW,321,0.0,0.0,81,0.00,,,0.00,Wunderground v.1.15,2013-06-14 05:42:00,
2013-06-14 00:44:00,72.6,66.4,29.70,NW,321,0.0,0.0,81,0.00,,,0.00,Wunderground v.1.15,2013-06-14 05:44:00,
2013-06-14 00:45:00,72.5,66.3,29.70,NW,321,0.0,0.0,81,0.00,,,0.00,Wunderground v.1.15,2013-06-14 05:45:00,
2013-06-14 00:48:00,72.4,66.6,29.70,NW,321,0.0,0.0,82,0.00,,,0.00,Wunderground v.1.15,2013-06-14 05:48:00,
2013-06-14 00:49:00,72.3,66.5,29.70,NW,321,0.0,0.0,82,0.00,,,0.00,Wunderground v.1.15,2013-06-14 05:49:00,
2013-06-14 00:50:00,72.2,66.7,29.70,NW,321,0.0,0.0,83,0.00,,,0.00,Wunderground v.1.15,2013-06-14 05:50:00,
2013-06-14 00:52:00,72.1,66.6,29.70,NW,321,0.0,0.0,83,0.00,,,0.00,Wunderground v.1.15,2013-06-14 05:52:00,
2013-06-14 00:53:00,72.0,66.6,29.70,NW,321,0.0,0.0,83,0.00,,,0.00,Wunderground v.1.15,2013-06-14 05:53:00,
2013-06-14 00:55:00,71.9,66.8,29.71,NW,321,0.0,0.0,84,0.00,,,0.00,Wunderground v.1.15,2013-06-14 05:55:00,
2013-06-14 00:57:00,71.7,66.6,29.71,NW,321,0.0,0.0,84,0.00,,,0.00,Wunderground v.1.15,2013-06-14 05:57:00,
2013-06-14 00:58:00,71.6,66.5,29.71,NW,321,0.0,0.0,84,0.00,,,0.00,Wunderground v.1.15,2013-06-14 05:58:00,
2013-06-14 01:02:00,71.3,66.2,29.71,NW,321,0.0,0.0,84,0.00,,,0.00,Wunderground v.1.15,2013-06-14 06:02:00,
2013-06-14 01:03:00,71.1,66.0,29.71,NW,321,0.0,0.0,84,0.00,,,0.00,Wunderground v.1.15,2013-06-14 06:03:00,
2013-06-14 01:04:00,71.1,66.4,29.71,NW,321,0.0,0.0,85,0.00,,,0.00,Wunderground v.1.15,2013-06-14 06:04:00,
2013-06-14 01:05:00,71.0,66.3,29.71,NW,321,0.0,0.0,85,0.00,,,0.00,Wunderground v.1.15,2013-06-14 06:05:00,
2013-06-14 01:09:00,70.7,66.3,29.71,NW,321,0.0,0.0,86,0.00,,,0.00,Wunderground v.1.15,2013-06-14 06:09:00,
2013-06-14 01:11:00,70.6,66.2,29.72,NW,321,0.0,0.0,86,0.00,,,0.00,Wunderground v.1.15,2013-06-14 06:11:00,
2013-06-14 01:13:00,70.4,66.0,29.72,NW,321,0.0,0.0,86,0.00,,,0.00,Wunderground v.1.15,2013-06-14 06:13:00,
2013-06-14 01:14:00,70.4,66.0,29.72,NW,321,0.0,0.0,86,0.00,,,0.00,Wunderground v.1.15,2013-06-14 06:14:00,
2013-06-14 01:17:00,70.2,66.1,29.72,NW,321,0.0,0.0,87,0.00,,,0.00,Wunderground v.1.15,2013-06-14 06:17:00,
2013-06-14 01:18:00,70.1,66.0,29.72,NW,321,0.0,0.0,87,0.00,,,0.00,Wunderground v.1.15,2013-06-14 06:18:00,
2013-06-14 01:19:00,70.1,66.0,29.72,NW,321,0.0,0.0,87,0.00,,,0.00,Wunderground v.1.15,2013-06-14 06:19:00,
2013-06-14 01:22:00,69.9,65.9,29.72,NW,321,0.0,0.0,87,0.00,,,0.00,Wunderground v.1.15,2013-06-14 06:22:00,
2013-06-14 01:23:00,69.9,65.9,29.72,NW,321,0.0,0.0,87,0.00,,,0.00,Wunderground v.1.15,2013-06-14 06:23:00,
2013-06-14 01:26:00,69.8,66.1,29.72,NW,321,0.0,0.0,88,0.00,,,0.00,Wunderground v.1.15,2013-06-14 06:26:00,
2013-06-14 01:27:00,69.8,66.1,29.72,NW,321,0.0,0.0,88,0.00,,,0.00,Wunderground v.1.15,2013-06-14 06:27:00,
2013-06-14 01:28:00,69.8,66.1,29.72,NW,321,0.0,0.0,88,0.00,,,0.00,Wunderground v.1.15,2013-06-14 06:28:00,
2013-06-14 01:31:00,69.7,66.0,29.72,NW,321,0.0,0.0,88,0.00,,,0.00,Wunderground v.1.15,2013-06-14 06:31:00,
2013-06-14 01:33:00,69.6,65.9,29.72,NW,321,0.0,0.0,88,0.00,,,0.00,Wunderground v.1.15,2013-06-14 06:33:00,
2013-06-14 01:34:00,69.5,65.8,29.72,NW,321,0.0,0.0,88,0.00,,,0.00,Wunderground v.1.15,2013-06-14 06:34:00,
2013-06-14 01:35:00,69.5,65.8,29.72,NW,321,0.0,0.0,88,0.00,,,0.00,Wunderground v.1.15,2013-06-14 06:35:00,
2013-06-14 01:38:00,69.3,65.6,29.72,NW,321,0.0,0.0,88,0.00,,,0.00,Wunderground v.1.15,2013-06-14 06:38:00,
2013-06-14 01:40:00,69.2,65.8,29.72,NW,321,0.0,0.0,89,0.00,,,0.00,Wunderground v.1.15,2013-06-14 06:40:00,
2013-06-14 01:41:00,69.1,65.7,29.72,NW,321,0.0,0.0,89,0.00,,,0.00,Wunderground v.1.15,2013-06-14 06:41:00,
2013-06-14 01:42:00,69.0,65.6,29.72,NW,321,0.0,0.0,89,0.00,,,0.00,Wunderground v.1.15,2013-06-14 06:42:00,
2013-06-14 01:45:00,68.9,65.5,29.72,NW,321,0.0,0.0,89,0.00,,,0.00,Wunderground v.1.15,2013-06-14 06:45:00,
2013-06-14 01:48:00,68.8,65.4,29.73,NW,321,0.0,0.0,89,0.00,,,0.00,Wunderground v.1.15,2013-06-14 06:48:00,
2013-06-14 01:49:00,68.7,65.6,29.72,NW,321,0.0,0.0,90,0.00,,,0.00,Wunderground v.1.15,2013-06-14 06:49:00,
2013-06-14 01:51:00,68.6,65.5,29.72,NW,321,0.0,0.0,90,0.00,,,0.00,Wunderground v.1.15,2013-06-14 06:51:00,
2013-06-14 01:52:00,68.6,65.5,29.72,NW,321,0.0,0.0,90,0.00,,,0.00,Wunderground v.1.15,2013-06-14 06:52:00,
2013-06-14 01:53:00,68.5,65.4,29.72,NW,321,0.0,0.0,90,0.00,,,0.00,Wunderground v.1.15,2013-06-14 06:53:00,
2013-06-14 01:54:00,68.5,65.4,29.72,NW,321,0.0,0.0,90,0.00,,,0.00,Wunderground v.1.15,2013-06-14 06:54:00,
2013-06-14 01:57:00,68.4,65.4,29.72,NW,321,0.0,0.0,90,0.00,,,0.00,Wunderground v.1.15,2013-06-14 06:57:00,
2013-06-14 01:58:00,68.4,65.4,29.72,NW,321,0.0,0.0,90,0.00,,,0.00,Wunderground v.1.15,2013-06-14 06:58:00,
2013-06-14 01:59:00,68.4,65.7,29.72,NW,321,0.0,0.0,91,0.00,,,0.00,Wunderground v.1.15,2013-06-14 06:59:00,
2013-06-14 02:00:00,68.4,65.7,29.72,NW,321,0.0,0.0,91,0.00,,,0.00,Wunderground v.1.15,2013-06-14 07:00:00,
2013-06-14 02:02:00,68.4,65.7,29.72,NW,321,0.0,0.0,91,0.00,,,0.00,Wunderground v.1.15,2013-06-14 07:02:00,
2013-06-14 02:04:00,68.4,65.7,29.72,NW,321,0.0,0.0,91,0.00,,,0.00,Wunderground v.1.15,2013-06-14 07:04:00,
2013-06-14 02:05:00,68.3,65.6,29.72,NW,321,0.0,0.0,91,0.00,,,0.00,Wunderground v.1.15,2013-06-14 07:05:00,
2013-06-14 02:06:00,68.3,65.6,29.72,NW,321,0.0,0.0,91,0.00,,,0.00,Wunderground v.1.15,2013-06-14 07:06:00,
2013-06-14 02:08:00,68.3,65.6,29.72,NW,321,0.0,0.0,91,0.00,,,0.00,Wunderground v.1.15,2013-06-14 07:08:00,
2013-06-14 02:09:00,68.2,65.5,29.72,NW,321,0.0,0.0,91,0.00,,,0.00,Wunderground v.1.15,2013-06-14 07:09:00,
2013-06-14 02:10:00,68.2,65.5,29.72,NW,321,0.0,0.0,91,0.00,,,0.00,Wunderground v.1.15,2013-06-14 07:10:00,
2013-06-14 02:11:00,68.2,65.5,29.72,NW,321,0.0,0.0,91,0.00,,,0.00,Wunderground v.1.15,2013-06-14 07:11:00,
2013-06-14 02:14:00,68.1,65.4,29.72,NW,321,0.0,0.0,91,0.00,,,0.00,Wunderground v.1.15,2013-06-14 07:14:00,
2013-06-14 02:15:00,68.0,65.3,29.72,NW,321,0.0,0.0,91,0.00,,,0.00,Wunderground v.1.15,2013-06-14 07:15:00,
2013-06-14 02:16:00,68.0,65.3,29.72,NW,321,0.0,0.0,91,0.00,,,0.00,Wunderground v.1.15,2013-06-14 07:16:00,
2013-06-14 02:19:00,68.0,65.3,29.72,NW,321,0.0,0.0,91,0.00,,,0.00,Wunderground v.1.15,2013-06-14 07:19:00,
2013-06-14 02:20:00,68.0,65.3,29.72,NW,321,0.0,0.0,91,0.00,,,0.00,Wunderground v.1.15,2013-06-14 07:20:00,
2013-06-14 02:21:00,67.9,65.2,29.72,NW,321,0.0,0.0,91,0.00,,,0.00,Wunderground v.1.15,2013-06-14 07:21:00,
2013-06-14 02:22:00,67.9,65.2,29.72,NW,321,0.0,0.0,91,0.00,,,0.00,Wunderground v.1.15,2013-06-14 07:22:00,
2013-06-14 02:24:00,67.8,65.1,29.72,NW,321,0.0,0.0,91,0.00,,,0.00,Wunderground v.1.15,2013-06-14 07:24:00,
2013-06-14 02:25:00,67.8,65.1,29.72,NW,321,0.0,0.0,91,0.00,,,0.00,Wunderground v.1.15,2013-06-14 07:25:00,
2013-06-14 02:27:00,67.7,65.0,29.72,NW,321,0.0,0.0,91,0.00,,,0.00,Wunderground v.1.15,2013-06-14 07:27:00,
2013-06-14 02:28:00,67.7,65.0,29.72,NW,321,0.0,0.0,91,0.00,,,0.00,Wunderground v.1.15,2013-06-14 07:28:00,
2013-06-14 02:29:00,67.6,64.9,29.72,NW,321,0.0,0.0,91,0.00,,,0.00,Wunderground v.1.15,2013-06-14 07:29:00,
2013-06-14 02:30:00,67.6,64.9,29.72,NW,321,0.0,0.0,91,0.00,,,0.00,Wunderground v.1.15,2013-06-14 07:30:00,
2013-06-14 02:31:00,67.6,64.9,29.72,NW,321,0.0,0.0,91,0.00,,,0.00,Wunderground v.1.15,2013-06-14 07:31:00,
2013-06-14 02:33:00,67.6,65.2,29.72,NW,321,0.0,0.0,92,0.00,,,0.00,Wunderground v.1.15,2013-06-14 07:33:00,
2013-06-14 02:34:00,67.5,65.1,29.72,NW,321,0.0,0.0,92,0.00,,,0.00,Wunderground v.1.15,2013-06-14 07:34:00,
2013-06-14 02:36:00,67.4,65.0,29.72,NW,321,0.0,0.0,92,0.00,,,0.00,Wunderground v.1.15,2013-06-14 07:36:00,
2013-06-14 02:38:00,67.3,64.9,29.72,NW,321,0.0,0.0,92,0.00,,,0.00,Wunderground v.1.15,2013-06-14 07:38:00,
2013-06-14 02:39:00,67.3,64.9,29.72,NW,321,0.0,0.0,92,0.00,,,0.00,Wunderground v.1.15,2013-06-14 07:39:00,
2013-06-14 02:40:00,67.2,64.8,29.72,NW,321,0.0,0.0,92,0.00,,,0.00,Wunderground v.1.15,2013-06-14 07:40:00,
2013-06-14 02:41:00,67.2,64.8,29.72,NW,321,0.0,0.0,92,0.00,,,0.00,Wunderground v.1.15,2013-06-14 07:41:00,
2013-06-14 02:43:00,67.2,64.8,29.72,NW,321,0.0,0.0,92,0.00,,,0.00,Wunderground v.1.15,2013-06-14 07:43:00,
2013-06-14 02:44:00,67.1,64.7,29.72,NW,321,0.0,0.0,92,0.00,,,0.00,Wunderground v.1.15,2013-06-14 07:44:00,
2013-06-14 02:45:00,67.1,64.7,29.72,NW,321,0.0,0.0,92,0.00,,,0.00,Wunderground v.1.15,2013-06-14 07:45:00,
2013-06-14 02:46:00,67.1,64.7,29.72,NW,321,0.0,0.0,92,0.00,,,0.00,Wunderground v.1.15,2013-06-14 07:46:00,
2013-06-14 02:47:00,67.1,64.7,29.72,NW,321,0.0,0.0,92,0.00,,,0.00,Wunderground v.1.15,2013-06-14 07:47:00,
2013-06-14 02:48:00,67.1,64.7,29.72,NW,321,0.0,0.0,92,0.00,,,0.00,Wunderground v.1.15,2013-06-14 07:48:00,
2013-06-14 02:49:00,67.1,64.7,29.72,NW,321,0.0,0.0,92,0.00,,,0.00,Wunderground v.1.15,2013-06-14 07:49:00,
2013-06-14 02:50:00,67.0,64.9,29.72,NW,321,0.0,0.0,93,0.00,,,0.00,Wunderground v.1.15,2013-06-14 07:50:00,
2013-06-14 02:52:00,67.0,64.9,29.72,NW,321,0.0,0.0,93,0.00,,,0.00,Wunderground v.1.15,2013-06-14 07:52:00,
2013-06-14 02:53:00,67.0,64.9,29.72,NW,321,0.0,0.0,93,0.00,,,0.00,Wunderground v.1.15,2013-06-14 07:53:00,
2013-06-14 02:54:00,67.0,64.9,29.72,NW,321,0.0,0.0,93,0.00,,,0.00,Wunderground v.1.15,2013-06-14 07:54:00,
2013-06-14 02:55:00,67.0,64.9,29.72,NW,321,0.0,0.0,93,0.00,,,0.00,Wunderground v.1.15,2013-06-14 07:55:00,
2013-06-14 02:57:00,67.0,64.9,29.72,NW,321,0.0,0.0,93,0.00,,,0.00,Wunderground v.1.15,2013-06-14 07:57:00,
2013-06-14 02:58:00,66.9,64.8,29.72,NW,321,0.0,0.0,93,0.00,,,0.00,Wunderground v.1.15,2013-06-14 07:58:00,
2013-06-14 03:00:00,66.9,64.8,29.72,NW,321,0.0,0.0,93,0.00,,,0.00,Wunderground v.1.15,2013-06-14 08:00:00,
2013-06-14 03:01:00,66.9,64.8,29.71,NW,321,0.0,0.0,93,0.00,,,0.00,Wunderground v.1.15,2013-06-14 08:01:00,
2013-06-14 03:02:00,66.9,64.8,29.71,NW,321,0.0,0.0,93,0.00,,,0.00,Wunderground v.1.15,2013-06-14 08:02:00,
2013-06-14 03:04:00,66.8,64.7,29.71,NW,321,0.0,0.0,93,0.00,,,0.00,Wunderground v.1.15,2013-06-14 08:04:00,
2013-06-14 03:05:00,66.8,64.7,29.71,NW,321,0.0,0.0,93,0.00,,,0.00,Wunderground v.1.15,2013-06-14 08:05:00,
2013-06-14 03:07:00,66.7,64.6,29.72,NW,321,0.0,0.0,93,0.00,,,0.00,Wunderground v.1.15,2013-06-14 08:07:00,
2013-06-14 03:09:00,66.7,64.6,29.72,NW,321,0.0,0.0,93,0.00,,,0.00,Wunderground v.1.15,2013-06-14 08:09:00,
2013-06-14 03:11:00,66.7,64.6,29.72,NW,321,0.0,0.0,93,0.00,,,0.00,Wunderground v.1.15,2013-06-14 08:11:00,
2013-06-14 03:12:00,66.6,64.5,29.72,NW,321,0.0,0.0,93,0.00,,,0.00,Wunderground v.1.15,2013-06-14 08:12:00,
2013-06-14 03:13:00,66.6,64.5,29.72,NW,321,0.0,0.0,93,0.00,,,0.00,Wunderground v.1.15,2013-06-14 08:13:00,
2013-06-14 03:14:00,66.5,64.4,29.72,NW,321,0.0,0.0,93,0.00,,,0.00,Wunderground v.1.15,2013-06-14 08:14:00,
2013-06-14 03:16:00,66.5,64.4,29.72,NW,321,0.0,0.0,93,0.00,,,0.00,Wunderground v.1.15,2013-06-14 08:16:00,
2013-06-14 03:18:00,66.5,64.4,29.72,NW,321,0.0,0.0,93,0.00,,,0.00,Wunderground v.1.15,2013-06-14 08:18:00,
2013-06-14 03:19:00,66.5,64.4,29.71,NW,321,0.0,0.0,93,0.00,,,0.00,Wunderground v.1.15,2013-06-14 08:19:00,
2013-06-14 03:21:00,66.4,64.3,29.71,NW,321,0.0,0.0,93,0.00,,,0.00,Wunderground v.1.15,2013-06-14 08:21:00,
2013-06-14 03:23:00,66.4,64.3,29.71,NW,321,0.0,0.0,93,0.00,,,0.00,Wunderground v.1.15,2013-06-14 08:23:00,
2013-06-14 03:25:00,66.4,64.3,29.71,NW,321,0.0,0.0,93,0.00,,,0.00,Wunderground v.1.15,2013-06-14 08:25:00,
2013-06-14 03:26:00,66.3,64.2,29.71,NW,321,0.0,0.0,93,0.00,,,0.00,Wunderground v.1.15,2013-06-14 08:26:00,
2013-06-14 03:29:00,66.3,64.2,29.71,NW,321,0.0,0.0,93,0.00,,,0.00,Wunderground v.1.15,2013-06-14 08:29:00,
2013-06-14 03:31:00,66.2,64.1,29.71,NW,321,0.0,0.0,93,0.00,,,0.00,Wunderground v.1.15,2013-06-14 08:31:00,
2013-06-14 03:32:00,66.2,64.1,29.71,NW,321,0.0,0.0,93,0.00,,,0.00,Wunderground v.1.15,2013-06-14 08:32:00,
2013-06-14 03:34:00,66.1,64.0,29.71,NW,321,0.0,0.0,93,0.00,,,0.00,Wunderground v.1.15,2013-06-14 08:34:00,
2013-06-14 03:36:00,66.1,64.0,29.71,NW,321,0.0,0.0,93,0.00,,,0.00,Wunderground v.1.15,2013-06-14 08:36:00,
2013-06-14 03:37:00,66.1,64.0,29.71,NW,321,0.0,0.0,93,0.00,,,0.00,Wunderground v.1.15,2013-06-14 08:37:00,
2013-06-14 03:38:00,66.0,63.9,29.71,NW,321,0.0,0.0,93,0.00,,,0.00,Wunderground v.1.15,2013-06-14 08:38:00,
2013-06-14 03:39:00,66.0,63.9,29.71,NW,321,0.0,0.0,93,0.00,,,0.00,Wunderground v.1.15,2013-06-14 08:39:00,
2013-06-14 03:41:00,66.0,63.9,29.71,NW,321,0.0,0.0,93,0.00,,,0.00,Wunderground v.1.15,2013-06-14 08:41:00,
2013-06-14 03:42:00,66.0,64.2,29.71,NW,321,0.0,0.0,94,0.00,,,0.00,Wunderground v.1.15,2013-06-14 08:42:00,
2013-06-14 03:43:00,65.9,64.1,29.71,NW,321,0.0,0.0,94,0.00,,,0.00,Wunderground v.1.15,2013-06-14 08:43:00,
2013-06-14 03:44:00,65.9,64.1,29.71,NW,321,0.0,0.0,94,0.00,,,0.00,Wunderground v.1.15,2013-06-14 08:44:00,
2013-06-14 03:45:00,65.9,64.1,29.71,NW,321,0.0,0.0,94,0.00,,,0.00,Wunderground v.1.15,2013-06-14 08:45:00,
2013-06-14 03:47:00,65.8,63.7,29.71,NW,321,0.0,0.0,93,0.00,,,0.00,Wunderground v.1.15,2013-06-14 08:47:00,
2013-06-14 03:48:00,65.8,63.7,29.71,NW,321,0.0,0.0,93,0.00,,,0.00,Wunderground v.1.15,2013-06-14 08:48:00,
2013-06-14 03:50:00,65.8,63.7,29.71,NW,321,0.0,0.0,93,0.00,,,0.00,Wunderground v.1.15,2013-06-14 08:50:00,
2013-06-14 03:52:00,65.8,63.7,29.71,NW,321,0.0,0.0,93,0.00,,,0.00,Wunderground v.1.15,2013-06-14 08:52:00,
2013-06-14 03:53:00,65.7,63.9,29.71,NW,321,0.0,0.0,94,0.00,,,0.00,Wunderground v.1.15,2013-06-14 08:53:00,
2013-06-14 03:55:00,65.7,63.9,29.71,NW,321,0.0,0.0,94,0.00,,,0.00,Wunderground v.1.15,2013-06-14 08:55:00,
2013-06-14 03:57:00,65.6,63.8,29.71,NW,321,0.0,0.0,94,0.00,,,0.00,Wunderground v.1.15,2013-06-14 08:57:00,
2013-06-14 03:59:00,65.6,63.8,29.71,NW,321,0.0,0.0,94,0.00,,,0.00,Wunderground v.1.15,2013-06-14 08:59:00,
2013-06-14 04:00:00,65.6,63.8,29.71,NW,321,0.0,0.0,94,0.00,,,0.00,Wunderground v.1.15,2013-06-14 09:00:00,
2013-06-14 04:02:00,65.5,63.7,29.71,NW,321,0.0,0.0,94,0.00,,,0.00,Wunderground v.1.15,2013-06-14 09:02:00,
2013-06-14 04:03:00,65.5,63.7,29.71,NW,321,0.0,0.0,94,0.00,,,0.00,Wunderground v.1.15,2013-06-14 09:03:00,
2013-06-14 04:04:00,65.4,63.6,29.72,NW,321,0.0,0.0,94,0.00,,,0.00,Wunderground v.1.15,2013-06-14 09:04:00,
2013-06-14 04:05:00,65.4,63.6,29.72,NW,321,0.0,0.0,94,0.00,,,0.00,Wunderground v.1.15,2013-06-14 09:05:00,
2013-06-14 04:07:00,65.4,63.6,29.73,NW,321,0.0,0.0,94,0.00,,,0.00,Wunderground v.1.15,2013-06-14 09:07:00,
2013-06-14 04:08:00,65.4,63.6,29.73,NW,321,0.0,0.0,94,0.00,,,0.00,Wunderground v.1.15,2013-06-14 09:08:00,
2013-06-14 04:10:00,65.3,63.5,29.73,NW,321,0.0,0.0,94,0.00,,,0.00,Wunderground v.1.15,2013-06-14 09:10:00,
2013-06-14 04:12:00,65.2,63.4,29.73,NW,321,0.0,0.0,94,0.00,,,0.00,Wunderground v.1.15,2013-06-14 09:12:00,
2013-06-14 04:13:00,65.2,63.4,29.73,NW,321,0.0,0.0,94,0.00,,,0.00,Wunderground v.1.15,2013-06-14 09:13:00,
2013-06-14 04:16:00,65.1,63.3,29.73,NW,321,0.0,0.0,94,0.00,,,0.00,Wunderground v.1.15,2013-06-14 09:16:00,
2013-06-14 04:18:00,65.1,63.3,29.72,NW,321,0.0,0.0,94,0.00,,,0.00,Wunderground v.1.15,2013-06-14 09:18:00,
2013-06-14 04:19:00,65.1,63.3,29.72,NW,321,0.0,0.0,94,0.00,,,0.00,Wunderground v.1.15,2013-06-14 09:19:00,
2013-06-14 04:21:00,65.0,63.2,29.72,NW,321,0.0,0.0,94,0.00,,,0.00,Wunderground v.1.15,2013-06-14 09:21:00,
2013-06-14 04:22:00,65.1,63.3,29.73,NW,321,0.0,0.0,94,0.00,,,0.00,Wunderground v.1.15,2013-06-14 09:22:00,
2013-06-14 04:23:00,65.1,63.3,29.73,NW,321,0.0,0.0,94,0.00,,,0.00,Wunderground v.1.15,2013-06-14 09:23:00,
2013-06-14 04:24:00,65.0,63.2,29.73,NW,321,0.0,0.0,94,0.00,,,0.00,Wunderground v.1.15,2013-06-14 09:24:00,
2013-06-14 04:26:00,65.0,63.2,29.73,NW,321,0.0,0.0,94,0.00,,,0.00,Wunderground v.1.15,2013-06-14 09:26:00,
2013-06-14 04:27:00,65.1,63.3,29.73,NW,321,0.0,0.0,94,0.00,,,0.00,Wunderground v.1.15,2013-06-14 09:27:00,
2013-06-14 04:28:00,65.0,63.2,29.73,NW,321,0.0,0.0,94,0.00,,,0.00,Wunderground v.1.15,2013-06-14 09:28:00,
2013-06-14 04:29:00,65.0,63.2,29.73,NW,321,0.0,0.0,94,0.00,,,0.00,Wunderground v.1.15,2013-06-14 09:29:00,
2013-06-14 04:31:00,65.0,63.2,29.73,NW,321,0.0,0.0,94,0.00,,,0.00,Wunderground v.1.15,2013-06-14 09:31:00,
2013-06-14 04:32:00,65.0,63.2,29.73,NW,321,0.0,0.0,94,0.00,,,0.00,Wunderground v.1.15,2013-06-14 09:32:00,
2013-06-14 04:33:00,65.0,63.2,29.73,NW,321,0.0,0.0,94,0.00,,,0.00,Wunderground v.1.15,2013-06-14 09:33:00,
2013-06-14 04:34:00,65.0,63.2,29.73,NW,321,0.0,0.0,94,0.00,,,0.00,Wunderground v.1.15,2013-06-14 09:34:00,
2013-06-14 04:36:00,65.0,63.2,29.73,NW,321,0.0,0.0,94,0.00,,,0.00,Wunderground v.1.15,2013-06-14 09:36:00,
2013-06-14 04:37:00,65.0,63.2,29.73,NW,321,0.0,0.0,94,0.00,,,0.00,Wunderground v.1.15,2013-06-14 09:37:00,
2013-06-14 04:38:00,64.9,63.1,29.72,NW,321,0.0,0.0,94,0.00,,,0.00,Wunderground v.1.15,2013-06-14 09:38:00,
2013-06-14 04:39:00,64.9,63.1,29.72,NW,321,0.0,0.0,94,0.00,,,0.00,Wunderground v.1.15,2013-06-14 09:39:00,
2013-06-14 04:41:00,64.9,63.1,29.72,NW,321,0.0,0.0,94,0.00,,,0.00,Wunderground v.1.15,2013-06-14 09:41:00,
2013-06-14 04:42:00,64.9,63.1,29.72,NW,321,0.0,0.0,94,0.00,,,0.00,Wunderground v.1.15,2013-06-14 09:42:00,
2013-06-14 04:43:00,64.9,63.1,29.72,NW,321,0.0,0.0,94,0.00,,,0.00,Wunderground v.1.15,2013-06-14 09:43:00,
2013-06-14 04:45:00,64.8,63.0,29.73,NW,321,0.0,0.0,94,0.00,,,0.00,Wunderground v.1.15,2013-06-14 09:45:00,
2013-06-14 04:46:00,64.8,63.0,29.73,NW,321,0.0,0.0,94,0.00,,,0.00,Wunderground v.1.15,2013-06-14 09:46:00,
2013-06-14 04:47:00,64.8,63.0,29.73,NW,321,0.0,0.0,94,0.00,,,0.00,Wunderground v.1.15,2013-06-14 09:47:00,
2013-06-14 04:49:00,64.8,63.0,29.73,NW,321,0.0,0.0,94,0.00,,,0.00,Wunderground v.1.15,2013-06-14 09:49:00,
2013-06-14 04:50:00,64.8,63.0,29.73,NW,321,0.0,0.0,94,0.00,,,0.00,Wunderground v.1.15,2013-06-14 09:50:00,
2013-06-14 04:52:00,64.7,62.9,29.73,NW,321,0.0,0.0,94,0.00,,,0.00,Wunderground v.1.15,2013-06-14 09:52:00,
2013-06-14 04:53:00,64.7,62.9,29.73,NW,321,0.0,0.0,94,0.00,,,0.00,Wunderground v.1.15,2013-06-14 09:53:00,
2013-06-14 04:54:00,64.7,62.9,29.73,NW,321,0.0,0.0,94,0.00,,,0.00,Wunderground v.1.15,2013-06-14 09:54:00,
2013-06-14 04:56:00,64.7,62.9,29.73,NW,321,0.0,0.0,94,0.00,,,0.00,Wunderground v.1.15,2013-06-14 09:56:00,
2013-06-14 04:57:00,64.7,62.9,29.73,NW,321,0.0,0.0,94,0.00,,,0.00,Wunderground v.1.15,2013-06-14 09:57:00,
2013-06-14 04:58:00,64.7,62.9,29.73,NW,321,0.0,0.0,94,0.00,,,0.00,Wunderground v.1.15,2013-06-14 09:58:00,
2013-06-14 04:59:00,64.7,62.9,29.73,NW,321,0.0,0.0,94,0.00,,,0.00,Wunderground v.1.15,2013-06-14 09:59:00,
2013-06-14 05:01:00,64.6,62.8,29.73,NW,321,0.0,0.0,94,0.00,,,0.00,Wunderground v.1.15,2013-06-14 10:01:00,
2013-06-14 05:02:00,64.6,62.8,29.74,NW,321,0.0,0.0,94,0.00,,,0.00,Wunderground v.1.15,2013-06-14 10:02:00,
2013-06-14 05:03:00,64.7,62.9,29.74,NW,321,0.0,0.0,94,0.00,,,0.00,Wunderground v.1.15,2013-06-14 10:03:00,
2013-06-14 05:04:00,64.6,62.8,29.74,NW,321,0.0,0.0,94,0.00,,,0.00,Wunderground v.1.15,2013-06-14 10:04:00,
2013-06-14 05:06:00,64.7,62.9,29.74,NW,321,0.0,0.0,94,0.00,,,0.00,Wunderground v.1.15,2013-06-14 10:06:00,
2013-06-14 05:07:00,64.7,62.9,29.74,NW,321,0.0,0.0,94,0.00,,,0.00,Wunderground v.1.15,2013-06-14 10:07:00,
2013-06-14 05:08:00,64.7,62.9,29.74,NW,321,0.0,0.0,94,0.00,,,0.00,Wunderground v.1.15,2013-06-14 10:08:00,
2013-06-14 05:09:00,64.6,62.8,29.75,NW,321,0.0,0.0,94,0.00,,,0.00,Wunderground v.1.15,2013-06-14 10:09:00,
2013-06-14 05:12:00,64.6,62.8,29.74,NW,321,0.0,0.0,94,0.00,,,0.00,Wunderground v.1.15,2013-06-14 10:12:00,
2013-06-14 05:13:00,64.6,62.8,29.75,NW,321,0.0,0.0,94,0.00,,,0.00,Wunderground v.1.15,2013-06-14 10:13:00,
2013-06-14 05:14:00,64.6,62.8,29.75,NW,321,0.0,0.0,94,0.00,,,0.00,Wunderground v.1.15,2013-06-14 10:14:00,
2013-06-14 05:17:00,64.6,62.8,29.75,NW,321,0.0,0.0,94,0.00,,,0.00,Wunderground v.1.15,2013-06-14 10:17:00,
2013-06-14 05:18:00,64.6,62.8,29.75,NW,321,0.0,0.0,94,0.00,,,0.00,Wunderground v.1.15,2013-06-14 10:18:00,
2013-06-14 05:19:00,64.7,62.9,29.75,NW,321,0.0,0.0,94,0.00,,,0.00,Wunderground v.1.15,2013-06-14 10:19:00,
2013-06-14 05:20:00,64.7,62.9,29.75,NW,321,0.0,0.0,94,0.00,,,0.00,Wunderground v.1.15,2013-06-14 10:20:00,
2013-06-14 05:22:00,64.7,62.9,29.75,NW,321,0.0,0.0,94,0.00,,,0.00,Wunderground v.1.15,2013-06-14 10:22:00,
2013-06-14 05:23:00,64.7,62.9,29.75,NW,321,0.0,0.0,94,0.00,,,0.00,Wunderground v.1.15,2013-06-14 10:23:00,
2013-06-14 05:24:00,64.7,62.9,29.75,NW,321,0.0,0.0,94,0.00,,,0.00,Wunderground v.1.15,2013-06-14 10:24:00,
2013-06-14 05:25:00,64.7,62.9,29.75,NW,321,0.0,0.0,94,0.00,,,0.00,Wunderground v.1.15,2013-06-14 10:25:00,
2013-06-14 05:27:00,64.7,62.9,29.75,NW,321,0.0,0.0,94,0.00,,,0.00,Wunderground v.1.15,2013-06-14 10:27:00,
2013-06-14 05:29:00,64.7,62.9,29.75,NW,321,0.0,0.0,94,0.00,,,0.00,Wunderground v.1.15,2013-06-14 10:29:00,
2013-06-14 05:30:00,64.7,62.9,29.74,NW,321,0.0,0.0,94,0.00,,,0.00,Wunderground v.1.15,2013-06-14 10:30:00,
2013-06-14 05:31:00,64.7,62.9,29.75,NW,321,0.0,0.0,94,0.00,,,0.00,Wunderground v.1.15,2013-06-14 10:31:00,
2013-06-14 05:33:00,64.8,63.0,29.75,NW,321,0.0,0.0,94,0.00,,,0.00,Wunderground v.1.15,2013-06-14 10:33:00,
2013-06-14 05:34:00,64.8,63.0,29.75,NW,321,0.0,0.0,94,0.00,,,0.00,Wunderground v.1.15,2013-06-14 10:34:00,
2013-06-14 05:36:00,64.9,63.1,29.74,NW,321,0.0,0.0,94,0.00,,,0.00,Wunderground v.1.15,2013-06-14 10:36:00,
2013-06-14 05:38:00,64.9,63.1,29.74,NW,321,0.0,0.0,94,0.00,,,0.00,Wunderground v.1.15,2013-06-14 10:38:00,
2013-06-14 05:39:00,64.9,63.1,29.74,NW,321,0.0,0.0,94,0.00,,,0.00,Wunderground v.1.15,2013-06-14 10:39:00,
2013-06-14 05:40:00,64.9,63.1,29.75,NW,321,0.0,0.0,94,0.00,,,0.00,Wunderground v.1.15,2013-06-14 10:40:00,
2013-06-14 05:41:00,65.0,63.2,29.74,NW,321,0.0,0.0,94,0.00,,,0.00,Wunderground v.1.15,2013-06-14 10:41:00,
2013-06-14 05:43:00,65.0,63.2,29.75,NW,321,0.0,0.0,94,0.00,,,0.00,Wunderground v.1.15,2013-06-14 10:43:00,
2013-06-14 05:45:00,65.0,63.2,29.75,NW,321,0.0,0.0,94,0.00,,,0.00,Wunderground v.1.15,2013-06-14 10:45:00,
2013-06-14 05:46:00,65.0,63.2,29.75,NW,321,0.0,0.0,94,0.00,,,0.00,Wunderground v.1.15,2013-06-14 10:46:00,
2013-06-14 05:47:00,65.1,63.3,29.75,NW,321,0.0,0.0,94,0.00,,,0.00,Wunderground v.1.15,2013-06-14 10:47:00,
2013-06-14 05:48:00,65.1,63.3,29.75,NW,321,0.0,0.0,94,0.00,,,0.00,Wunderground v.1.15,2013-06-14 10:48:00,
2013-06-14 05:50:00,65.2,63.4,29.75,NW,321,0.0,0.0,94,0.00,,,0.00,Wunderground v.1.15,2013-06-14 10:50:00,
2013-06-14 05:51:00,65.2,63.4,29.75,NW,321,0.0,0.0,94,0.00,,,0.00,Wunderground v.1.15,2013-06-14 10:51:00,
2013-06-14 05:52:00,65.2,63.4,29.75,NW,321,0.0,0.0,94,0.00,,,0.00,Wunderground v.1.15,2013-06-14 10:52:00,
2013-06-14 05:54:00,65.2,63.4,29.75,NW,321,0.0,0.0,94,0.00,,,0.00,Wunderground v.1.15,2013-06-14 10:54:00,
2013-06-14 05:55:00,65.2,63.4,29.75,NW,321,0.0,0.0,94,0.00,,,0.00,Wunderground v.1.15,2013-06-14 10:55:00,
2013-06-14 05:56:00,65.2,63.4,29.75,NW,321,0.0,0.0,94,0.00,,,0.00,Wunderground v.1.15,2013-06-14 10:56:00,
2013-06-14 05:57:00,65.2,63.4,29.75,NW,321,0.0,0.0,94,0.00,,,0.00,Wunderground v.1.15,2013-06-14 10:57:00,
2013-06-14 05:59:00,65.2,63.4,29.75,NW,321,0.0,0.0,94,0.00,,,0.00,Wunderground v.1.15,2013-06-14 10:59:00,
2013-06-14 06:00:00,65.2,63.4,29.75,NW,321,0.0,0.0,94,0.00,,,0.00,Wunderground v.1.15,2013-06-14 11:00:00,
2013-06-14 06:02:00,65.3,63.5,29.75,NW,321,0.0,0.0,94,0.00,,,0.00,Wunderground v.1.15,2013-06-14 11:02:00,
2013-06-14 06:05:00,65.3,63.5,29.75,NW,321,0.0,0.0,94,0.00,,,0.00,Wunderground v.1.15,2013-06-14 11:05:00,
2013-06-14 06:06:00,65.3,63.5,29.75,NW,321,0.0,0.0,94,0.00,,,0.00,Wunderground v.1.15,2013-06-14 11:06:00,
2013-06-14 06:07:00,65.3,63.5,29.75,NW,321,0.0,0.0,94,0.00,,,0.00,Wunderground v.1.15,2013-06-14 11:07:00,
2013-06-14 06:08:00,65.3,63.5,29.75,NW,321,0.0,0.0,94,0.00,,,0.00,Wunderground v.1.15,2013-06-14 11:08:00,
2013-06-14 06:10:00,65.3,63.5,29.76,NW,321,0.0,0.0,94,0.00,,,0.00,Wunderground v.1.15,2013-06-14 11:10:00,
2013-06-14 06:11:00,65.4,63.6,29.76,NW,321,0.0,0.0,94,0.00,,,0.00,Wunderground v.1.15,2013-06-14 11:11:00,
2013-06-14 06:12:00,65.4,63.6,29.76,NW,321,0.0,0.0,94,0.00,,,0.00,Wunderground v.1.15,2013-06-14 11:12:00,
2013-06-14 06:13:00,65.4,63.6,29.76,NW,321,0.0,0.0,94,0.00,,,0.00,Wunderground v.1.15,2013-06-14 11:13:00,
2013-06-14 06:15:00,65.4,63.6,29.75,NW,321,0.0,0.0,94,0.00,,,0.00,Wunderground v.1.15,2013-06-14 11:15:00,
2013-06-14 06:17:00,65.4,63.6,29.76,NW,321,0.0,0.0,94,0.00,,,0.00,Wunderground v.1.15,2013-06-14 11:17:00,
2013-06-14 06:18:00,65.5,63.7,29.76,NW,321,0.0,0.0,94,0.00,,,0.00,Wunderground v.1.15,2013-06-14 11:18:00,
2013-06-14 06:20:00,65.5,63.7,29.76,NW,321,0.0,0.0,94,0.00,,,0.00,Wunderground v.1.15,2013-06-14 11:20:00,
2013-06-14 06:22:00,65.6,63.8,29.76,NW,321,0.0,0.0,94,0.00,,,0.00,Wunderground v.1.15,2013-06-14 11:22:00,
2013-06-14 06:23:00,65.6,63.8,29.76,NW,321,0.0,0.0,94,0.00,,,0.00,Wunderground v.1.15,2013-06-14 11:23:00,
2013-06-14 06:26:00,65.6,63.8,29.76,NW,321,0.0,0.0,94,0.00,,,0.00,Wunderground v.1.15,2013-06-14 11:26:00,
2013-06-14 06:27:00,65.7,63.9,29.76,NW,321,0.0,0.0,94,0.00,,,0.00,Wunderground v.1.15,2013-06-14 11:27:00,
2013-06-14 06:29:00,65.7,63.9,29.76,NW,321,0.0,0.0,94,0.00,,,0.00,Wunderground v.1.15,2013-06-14 11:29:00,
2013-06-14 06:31:00,65.8,64.0,29.76,NW,321,0.0,0.0,94,0.00,,,0.00,Wunderground v.1.15,2013-06-14 11:31:00,
2013-06-14 06:32:00,65.9,64.1,29.76,NW,321,0.0,0.0,94,0.00,,,0.00,Wunderground v.1.15,2013-06-14 11:32:00,
2013-06-14 06:34:00,65.9,64.1,29.76,NW,321,0.0,0.0,94,0.00,,,0.00,Wunderground v.1.15,2013-06-14 11:34:00,
2013-06-14 06:37:00,66.1,64.3,29.76,NW,321,0.0,0.0,94,0.00,,,0.00,Wunderground v.1.15,2013-06-14 11:37:00,
2013-06-14 06:38:00,66.1,64.3,29.76,NW,321,0.0,0.0,94,0.00,,,0.00,Wunderground v.1.15,2013-06-14 11:38:00,
2013-06-14 06:39:00,66.2,64.4,29.76,NW,321,0.0,0.0,94,0.00,,,0.00,Wunderground v.1.15,2013-06-14 11:39:00,
2013-06-14 06:40:00,66.3,64.5,29.76,NW,321,0.0,0.0,94,0.00,,,0.00,Wunderground v.1.15,2013-06-14 11:40:00,
2013-06-14 06:43:00,66.5,64.7,29.76,NW,321,0.0,0.0,94,0.00,,,0.00,Wunderground v.1.15,2013-06-14 11:43:00,
2013-06-14 06:44:00,66.5,64.7,29.76,NW,321,0.0,0.0,94,0.00,,,0.00,Wunderground v.1.15,2013-06-14 11:44:00,
2013-06-14 06:45:00,66.6,64.8,29.76,NW,321,0.0,0.0,94,0.00,,,0.00,Wunderground v.1.15,2013-06-14 11:45:00,
2013-06-14 06:48:00,66.8,65.0,29.76,NW,321,0.0,0.0,94,0.00,,,0.00,Wunderground v.1.15,2013-06-14 11:48:00,
2013-06-14 06:49:00,66.9,65.1,29.76,NW,321,0.0,0.0,94,0.00,,,0.00,Wunderground v.1.15,2013-06-14 11:49:00,
2013-06-14 06:50:00,66.9,65.1,29.76,NW,321,0.0,0.0,94,0.00,,,0.00,Wunderground v.1.15,2013-06-14 11:50:00,
2013-06-14 06:51:00,67.0,65.2,29.76,NW,321,0.0,0.0,94,0.00,,,0.00,Wunderground v.1.15,2013-06-14 11:51:00,
2013-06-14 06:54:00,67.2,65.4,29.76,NW,321,0.0,0.0,94,0.00,,,0.00,Wunderground v.1.15,2013-06-14 11:54:00,
2013-06-14 06:55:00,67.2,65.4,29.76,NW,321,0.0,0.0,94,0.00,,,0.00,Wunderground v.1.15,2013-06-14 11:55:00,
2013-06-14 06:57:00,67.4,65.6,29.76,NW,321,0.0,0.0,94,0.00,,,0.00,Wunderground v.1.15,2013-06-14 11:57:00,
2013-06-14 06:59:00,67.6,65.8,29.76,NW,321,0.0,0.0,94,0.00,,,0.00,Wunderground v.1.15,2013-06-14 11:59:00,
2013-06-14 07:00:00,67.6,65.8,29.76,NW,321,0.0,0.0,94,0.00,,,0.00,Wunderground v.1.15,2013-06-14 12:00:00,
2013-06-14 07:01:00,67.6,65.8,29.76,NW,321,0.0,0.0,94,0.00,,,0.00,Wunderground v.1.15,2013-06-14 12:01:00,
2013-06-14 07:02:00,67.7,65.9,29.76,East,80,0.0,0.0,94,0.00,,,0.00,Wunderground v.1.15,2013-06-14 12:02:00,
2013-06-14 07:05:00,68.0,66.2,29.76,East,81,0.0,0.0,94,0.00,,,0.00,Wunderground v.1.15,2013-06-14 12:05:00,
2013-06-14 07:06:00,68.1,66.3,29.76,East,81,0.0,0.0,94,0.00,,,0.00,Wunderground v.1.15,2013-06-14 12:06:00,
2013-06-14 07:07:00,68.2,66.4,29.76,East,80,0.0,0.0,94,0.00,,,0.00,Wunderground v.1.15,2013-06-14 12:07:00,
2013-06-14 07:10:00,68.5,66.7,29.76,NNW,332,0.0,2.0,94,0.00,,,0.00,Wunderground v.1.15,2013-06-14 12:10:00,
2013-06-14 07:11:00,68.7,66.9,29.76,ENE,76,0.0,3.0,94,0.00,,,0.00,Wunderground v.1.15,2013-06-14 12:11:00,
2013-06-14 07:14:00,69.0,67.2,29.77,ENE,76,0.0,3.0,94,0.00,,,0.00,Wunderground v.1.15,2013-06-14 12:14:00,
2013-06-14 07:15:00,69.2,67.4,29.77,ENE,75,0.0,0.0,94,0.00,,,0.00,Wunderground v.1.15,2013-06-14 12:15:00,
2013-06-14 07:17:00,69.3,67.2,29.77,ESE,105,0.0,0.0,93,0.00,,,0.00,Wunderground v.1.15,2013-06-14 12:17:00,
2013-06-14 07:19:00,69.8,67.4,29.77,ESE,105,0.0,0.0,92,0.00,,,0.00,Wunderground v.1.15,2013-06-14 12:19:00,
2013-06-14 07:20:00,69.9,67.5,29.77,ESE,105,0.0,0.0,92,0.00,,,0.00,Wunderground v.1.15,2013-06-14 12:20:00,
2013-06-14 07:22:00,70.1,67.3,29.77,ESE,105,0.0,0.0,91,0.00,,,0.00,Wunderground v.1.15,2013-06-14 12:22:00,
2013-06-14 07:24:00,70.4,67.0,29.77,West,261,0.0,4.0,89,0.00,,,0.00,Wunderground v.1.15,2013-06-14 12:24:00,
2013-06-14 07:25:00,70.5,66.8,29.77,WNW,291,0.0,0.0,88,0.00,,,0.00,Wunderground v.1.15,2013-06-14 12:25:00,
2013-06-14 07:27:00,70.8,66.4,29.78,WNW,291,0.0,0.0,86,0.00,,,0.00,Wunderground v.1.15,2013-06-14 12:27:00,
2013-06-14 07:29:00,71.1,66.7,29.78,ESE,115,0.0,1.0,86,0.00,,,0.00,Wunderground v.1.15,2013-06-14 12:29:00,
2013-06-14 07:30:00,71.2,66.1,29.78,ESE,109,0.0,1.0,84,0.00,,,0.00,Wunderground v.1.15,2013-06-14 12:30:00,
2013-06-14 07:32:00,71.4,66.0,29.78,East,96,0.0,1.0,83,0.00,,,0.00,Wunderground v.1.15,2013-06-14 12:32:00,
2013-06-14 07:33:00,71.5,65.7,29.78,NW,325,0.0,1.0,82,0.00,,,0.00,Wunderground v.1.15,2013-06-14 12:33:00,
2013-06-14 07:34:00,71.6,65.5,29.78,NW,326,0.0,1.0,81,0.00,,,0.00,Wunderground v.1.15,2013-06-14 12:34:00,
2013-06-14 07:35:00,71.6,65.5,29.78,NW,326,0.0,0.0,81,0.00,,,0.00,Wunderground v.1.15,2013-06-14 12:35:00,
2013-06-14 07:37:00,71.9,65.4,29.78,NNW,342,0.0,2.0,80,0.00,,,0.00,Wunderground v.1.15,2013-06-14 12:37:00,
2013-06-14 07:38:00,72.0,65.5,29.78,North,351,0.0,2.0,80,0.00,,,0.00,Wunderground v.1.15,2013-06-14 12:38:00,
2013-06-14 07:40:00,72.1,65.6,29.78,North,355,0.0,2.0,80,0.00,,,0.00,Wunderground v.1.15,2013-06-14 12:40:00,
2013-06-14 07:42:00,72.3,65.4,29.78,North,355,0.0,2.0,79,0.00,,,0.00,Wunderground v.1.15,2013-06-14 12:42:00,
2013-06-14 07:43:00,72.4,64.8,29.78,WSW,248,0.0,2.0,77,0.00,,,0.00,Wunderground v.1.15,2013-06-14 12:43:00,
2013-06-14 07:45:00,72.6,65.3,29.78,WSW,244,0.0,0.0,78,0.00,,,0.00,Wunderground v.1.15,2013-06-14 12:45:00,
2013-06-14 07:46:00,72.7,65.1,29.78,WSW,245,0.0,0.0,77,0.00,,,0.00,Wunderground v.1.15,2013-06-14 12:46:00,
2013-06-14 07:47:00,72.8,64.8,29.78,ENE,71,4.0,4.0,76,0.00,,,0.00,Wunderground v.1.15,2013-06-14 12:47:00,
2013-06-14 07:48:00,73.0,64.6,29.78,ENE,72,0.0,4.0,75,0.00,,,0.00,Wunderground v.1.15,2013-06-14 12:48:00,
2013-06-14 07:50:00,73.1,65.1,29.78,ENE,71,0.0,4.0,76,0.00,,,0.00,Wunderground v.1.15,2013-06-14 12:50:00,
2013-06-14 07:51:00,73.3,64.5,29.78,ENE,69,0.0,4.0,74,0.00,,,0.00,Wunderground v.1.15,2013-06-14 12:51:00,
2013-06-14 07:52:00,73.4,64.6,29.78,ESE,107,0.0,4.0,74,0.00,,,0.00,Wunderground v.1.15,2013-06-14 12:52:00,
2013-06-14 07:54:00,73.5,64.7,29.78,South,175,0.0,4.0,74,0.00,,,0.00,Wunderground v.1.15,2013-06-14 12:54:00,
2013-06-14 07:55:00,73.6,64.8,29.78,South,175,0.0,0.0,74,0.00,,,0.00,Wunderground v.1.15,2013-06-14 12:55:00,
2013-06-14 07:56:00,73.6,64.4,29.78,South,175,0.0,0.0,73,0.00,,,0.00,Wunderground v.1.15,2013-06-14 12:56:00,
2013-06-14 07:57:00,73.8,64.2,29.78,South,182,0.0,0.0,72,0.00,,,0.00,Wunderground v.1.15,2013-06-14 12:57:00,
2013-06-14 08:00:00,74.0,63.2,29.79,ENE,65,0.0,6.0,69,0.00,,,0.00,Wunderground v.1.15,2013-06-14 13:00:00,
2013-06-14 08:01:00,74.1,63.3,29.79,South,188,0.0,6.0,69,0.00,,,0.00,Wunderground v.1.15,2013-06-14 13:01:00,
2013-06-14 08:03:00,74.2,63.4,29.79,WNW,301,0.0,6.0,69,0.00,,,0.00,Wunderground v.1.15,2013-06-14 13:03:00,
2013-06-14 08:05:00,74.4,63.1,29.79,SW,220,0.0,0.0,68,0.00,,,0.00,Wunderground v.1.15,2013-06-14 13:05:00,
2013-06-14 08:06:00,74.4,63.1,29.79,SW,219,0.0,0.0,68,0.00,,,0.00,Wunderground v.1.15,2013-06-14 13:06:00,
2013-06-14 08:07:00,74.5,64.1,29.79,SW,219,0.0,1.0,70,0.00,,,0.00,Wunderground v.1.15,2013-06-14 13:07:00,
2013-06-14 08:08:00,74.5,62.8,29.79,ENE,71,0.0,1.0,67,0.00,,,0.00,Wunderground v.1.15,2013-06-14 13:08:00,
2013-06-14 08:09:00,74.6,62.9,29.79,NE,54,0.0,1.0,67,0.00,,,0.00,Wunderground v.1.15,2013-06-14 13:09:00,
2013-06-14 08:11:00,74.7,62.6,29.79,East,90,0.0,1.0,66,0.00,,,0.00,Wunderground v.1.15,2013-06-14 13:11:00,
2013-06-14 08:12:00,74.8,62.7,29.79,East,80,0.0,1.0,66,0.00,,,0.00,Wunderground v.1.15,2013-06-14 13:12:00,
2013-06-14 08:14:00,75.0,62.9,29.79,NNW,328,4.0,5.0,66,0.00,,,0.00,Wunderground v.1.15,2013-06-14 13:14:00,
2013-06-14 08:16:00,75.1,63.4,29.79,NNW,337,0.0,0.0,67,0.00,,,0.00,Wunderground v.1.15,2013-06-14 13:16:00,
2013-06-14 08:17:00,75.1,63.4,29.79,ENE,64,0.0,0.0,67,0.00,,,0.00,Wunderground v.1.15,2013-06-14 13:17:00,
2013-06-14 08:19:00,75.2,63.1,29.79,West,268,0.0,5.0,66,0.00,,,0.00,Wunderground v.1.15,2013-06-14 13:19:00,
2013-06-14 08:21:00,75.3,62.7,29.79,WNW,296,0.0,5.0,65,0.00,,,0.00,Wunderground v.1.15,2013-06-14 13:21:00,
2013-06-14 08:22:00,75.3,62.7,29.79,NNW,347,6.0,6.0,65,0.00,,,0.00,Wunderground v.1.15,2013-06-14 13:22:00,
2013-06-14 08:23:00,75.3,62.7,29.79,SSW,210,0.0,6.0,65,0.00,,,0.00,Wunderground v.1.15,2013-06-14 13:23:00,
2013-06-14 08:24:00,75.3,62.3,29.79,SSW,209,0.0,6.0,64,0.00,,,0.00,Wunderground v.1.15,2013-06-14 13:24:00,
2013-06-14 08:26:00,75.3,61.8,29.79,South,191,0.0,1.0,63,0.00,,,0.00,Wunderground v.1.15,2013-06-14 13:26:00,
2013-06-14 08:27:00,75.3,62.7,29.79,South,191,0.0,1.0,65,0.00,,,0.00,Wunderground v.1.15,2013-06-14 13:27:00,
2013-06-14 08:28:00,75.3,62.3,29.79,NW,310,0.0,1.0,64,0.00,,,0.00,Wunderground v.1.15,2013-06-14 13:28:00,
2013-06-14 08:29:00,75.3,60.9,29.79,NNW,337,0.0,6.0,61,0.00,,,0.00,Wunderground v.1.15,2013-06-14 13:29:00,
2013-06-14 08:32:00,75.3,60.9,29.79,South,190,0.0,6.0,61,0.00,,,0.00,Wunderground v.1.15,2013-06-14 13:32:00,
2013-06-14 08:33:00,75.4,61.0,29.79,South,178,0.0,6.0,61,0.00,,,0.00,Wunderground v.1.15,2013-06-14 13:33:00,
2013-06-14 08:34:00,75.4,61.9,29.79,SE,126,0.0,6.0,63,0.00,,,0.00,Wunderground v.1.15,2013-06-14 13:34:00,
2013-06-14 08:36:00,75.5,62.0,29.80,SE,126,0.0,1.0,63,0.00,,,0.00,Wunderground v.1.15,2013-06-14 13:36:00,
2013-06-14 08:37:00,75.7,63.1,29.80,SSE,159,0.0,1.0,65,0.00,,,0.00,Wunderground v.1.15,2013-06-14 13:37:00,
2013-06-14 08:38:00,75.7,63.1,29.80,SSE,165,0.0,1.0,65,0.00,,,0.00,Wunderground v.1.15,2013-06-14 13:38:00,
2013-06-14 08:39:00,75.8,62.3,29.80,ESE,118,0.0,5.0,63,0.00,,,0.00,Wunderground v.1.15,2013-06-14 13:39:00,
2013-06-14 08:41:00,76.0,61.6,29.80,SSW,194,5.0,5.0,61,0.00,,,0.00,Wunderground v.1.15,2013-06-14 13:41:00,
2013-06-14 08:43:00,76.1,61.7,29.80,NNW,337,0.0,7.0,61,0.00,,,0.00,Wunderground v.1.15,2013-06-14 13:43:00,
2013-06-14 08:44:00,76.1,61.7,29.80,SSE,153,0.0,7.0,61,0.00,,,0.00,Wunderground v.1.15,2013-06-14 13:44:00,
2013-06-14 08:45:00,76.2,61.3,29.80,SSE,163,0.0,0.0,60,0.00,,,0.00,Wunderground v.1.15,2013-06-14 13:45:00,
2013-06-14 08:46:00,76.2,60.8,29.80,ENE,76,2.0,3.0,59,0.00,,,0.00,Wunderground v.1.15,2013-06-14 13:46:00,
2013-06-14 08:48:00,76.3,60.9,29.80,NNE,19,0.0,3.0,59,0.00,,,0.00,Wunderground v.1.15,2013-06-14 13:48:00,
2013-06-14 08:49:00,76.4,61.0,29.80,NNE,19,0.0,3.0,59,0.00,,,0.00,Wunderground v.1.15,2013-06-14 13:49:00,
2013-06-14 08:50:00,76.5,61.6,29.80,NNE,19,0.0,3.0,60,0.00,,,0.00,Wunderground v.1.15,2013-06-14 13:50:00,
2013-06-14 08:51:00,76.6,61.2,29.80,NNE,18,0.0,3.0,59,0.00,,,0.00,Wunderground v.1.15,2013-06-14 13:51:00,
2013-06-14 08:53:00,76.7,60.3,29.80,South,190,0.0,3.0,57,0.00,,,0.00,Wunderground v.1.15,2013-06-14 13:53:00,
2013-06-14 08:54:00,76.8,61.4,29.80,SW,234,0.0,3.0,59,0.00,,,0.00,Wunderground v.1.15,2013-06-14 13:54:00,
2013-06-14 08:56:00,76.9,61.0,29.80,SSE,155,0.0,0.0,58,0.00,,,0.00,Wunderground v.1.15,2013-06-14 13:56:00,
2013-06-14 08:59:00,77.1,62.1,29.80,SSE,155,0.0,0.0,60,0.00,,,0.00,Wunderground v.1.15,2013-06-14 13:59:00,
2013-06-14 09:01:00,77.4,61.9,29.80,East,90,0.0,3.0,59,0.00,,,0.00,Wunderground v.1.15,2013-06-14 14:01:00,
2013-06-14 09:05:00,77.7,61.7,29.80,ESE,116,0.0,0.0,58,0.00,,,0.00,Wunderground v.1.15,2013-06-14 14:05:00,
2013-06-14 09:06:00,77.8,61.8,29.80,NW,325,3.0,3.0,58,0.00,,,0.00,Wunderground v.1.15,2013-06-14 14:06:00,
2013-06-14 09:10:00,77.9,60.9,29.80,ESE,103,0.0,5.0,56,0.00,,,0.00,Wunderground v.1.15,2013-06-14 14:10:00,
2013-06-14 09:11:00,78.0,61.0,29.80,East,80,2.0,5.0,56,0.00,,,0.00,Wunderground v.1.15,2013-06-14 14:11:00,
2013-06-14 09:12:00,78.0,60.0,29.80,East,86,0.0,5.0,54,0.00,,,0.00,Wunderground v.1.15,2013-06-14 14:12:00,
2013-06-14 09:13:00,78.1,60.1,29.80,East,82,0.0,5.0,54,0.00,,,0.00,Wunderground v.1.15,2013-06-14 14:13:00,
2013-06-14 09:16:00,78.3,60.8,29.80,NNW,330,0.0,1.0,55,0.00,,,0.00,Wunderground v.1.15,2013-06-14 14:16:00,
2013-06-14 09:17:00,78.3,60.3,29.80,NW,325,0.0,1.0,54,0.00,,,0.00,Wunderground v.1.15,2013-06-14 14:17:00,
2013-06-14 09:18:00,78.3,59.8,29.80,WNW,300,0.0,1.0,53,0.00,,,0.00,Wunderground v.1.15,2013-06-14 14:18:00,
2013-06-14 09:21:00,78.5,59.9,29.80,South,188,2.0,4.0,53,0.00,,,0.00,Wunderground v.1.15,2013-06-14 14:21:00,
2013-06-14 09:22:00,78.5,59.9,29.80,SSW,195,2.0,5.0,53,0.00,,,0.00,Wunderground v.1.15,2013-06-14 14:22:00,
2013-06-14 09:23:00,78.6,60.6,29.80,North,355,0.0,5.0,54,0.00,,,0.00,Wunderground v.1.15,2013-06-14 14:23:00,
2013-06-14 09:26:00,78.7,59.6,29.80,North,9,0.0,0.0,52,0.00,,,0.00,Wunderground v.1.15,2013-06-14 14:26:00,
2013-06-14 09:27:00,78.7,59.6,29.80,North,9,0.0,0.0,52,0.00,,,0.00,Wunderground v.1.15,2013-06-14 14:27:00,
2013-06-14 09:28:00,78.7,59.6,29.80,SSE,168,0.0,0.0,52,0.00,,,0.00,Wunderground v.1.15,2013-06-14 14:28:00,
2013-06-14 09:32:00,78.9,58.7,29.80,NW,323,0.0,1.0,50,0.00,,,0.00,Wunderground v.1.15,2013-06-14 14:32:00,
2013-06-14 09:33:00,78.9,58.7,29.80,SSW,202,0.0,1.0,50,0.00,,,0.00,Wunderground v.1.15,2013-06-14 14:33:00,
2013-06-14 09:34:00,78.9,58.7,29.80,SSW,202,0.0,1.0,50,0.00,,,0.00,Wunderground v.1.15,2013-06-14 14:34:00,
2013-06-14 09:37:00,79.1,58.9,29.80,West,281,0.0,0.0,50,0.00,,,0.00,Wunderground v.1.15,2013-06-14 14:37:00,
2013-06-14 09:38:00,79.2,59.0,29.80,East,92,0.0,0.0,50,0.00,,,0.00,Wunderground v.1.15,2013-06-14 14:38:00,
2013-06-14 09:39:00,79.2,57.8,29.80,East,79,0.0,0.0,48,0.00,,,0.00,Wunderground v.1.15,2013-06-14 14:39:00,
2013-06-14 09:40:00,79.3,57.9,29.80,East,82,0.0,0.0,48,0.00,,,0.00,Wunderground v.1.15,2013-06-14 14:40:00,
2013-06-14 09:42:00,79.6,57.0,29.81,NNE,32,0.0,3.0,46,0.00,,,0.00,Wunderground v.1.15,2013-06-14 14:42:00,
2013-06-14 09:43:00,79.7,58.8,29.80,SSW,196,0.0,3.0,49,0.00,,,0.00,Wunderground v.1.15,2013-06-14 14:43:00,
2013-06-14 09:44:00,79.7,57.1,29.80,SSW,196,0.0,3.0,46,0.00,,,0.00,Wunderground v.1.15,2013-06-14 14:44:00,
2013-06-14 09:45:00,79.8,57.8,29.80,WSW,245,0.0,0.0,47,0.00,,,0.00,Wunderground v.1.15,2013-06-14 14:45:00,
2013-06-14 09:48:00,79.8,57.8,29.80,WNW,288,0.0,6.0,47,0.00,,,0.00,Wunderground v.1.15,2013-06-14 14:48:00,
2013-06-14 09:49:00,79.8,57.8,29.80,South,182,0.0,6.0,47,0.00,,,0.00,Wunderground v.1.15,2013-06-14 14:49:00,
2013-06-14 09:50:00,79.8,57.8,29.80,ESE,109,0.0,6.0,47,0.00,,,0.00,Wunderground v.1.15,2013-06-14 14:50:00,
2013-06-14 09:51:00,79.9,58.5,29.80,South,188,0.0,6.0,48,0.00,,,0.00,Wunderground v.1.15,2013-06-14 14:51:00,
2013-06-14 09:53:00,79.9,57.9,29.80,SW,233,0.0,6.0,47,0.00,,,0.00,Wunderground v.1.15,2013-06-14 14:53:00,
2013-06-14 09:55:00,79.9,57.9,29.80,ENE,71,0.0,1.0,47,0.00,,,0.00,Wunderground v.1.15,2013-06-14 14:55:00,
2013-06-14 09:56:00,79.9,57.9,29.80,West,279,0.0,1.0,47,0.00,,,0.00,Wunderground v.1.15,2013-06-14 14:56:00,
2013-06-14 09:59:00,80.0,58.0,29.80,NNE,19,0.0,4.0,47,0.00,,,0.00,Wunderground v.1.15,2013-06-14 14:59:00,
2013-06-14 10:00:00,80.0,57.4,29.80,ESE,102,0.0,4.0,46,0.00,,,0.00,Wunderground v.1.15,2013-06-14 15:00:00,
2013-06-14 10:01:00,80.1,57.5,29.80,SSE,151,0.0,4.0,46,0.00,,,0.00,Wunderground v.1.15,2013-06-14 15:01:00,
2013-06-14 10:02:00,80.1,58.0,29.80,SW,227,0.0,4.0,47,0.00,,,0.00,Wunderground v.1.15,2013-06-14 15:02:00,
2013-06-14 10:04:00,80.1,57.5,29.80,NW,319,3.0,4.0,46,0.00,,,0.00,Wunderground v.1.15,2013-06-14 15:04:00,
2013-06-14 10:06:00,80.1,58.0,29.80,NW,318,0.0,1.0,47,0.00,,,0.00,Wunderground v.1.15,2013-06-14 15:06:00,
2013-06-14 10:07:00,80.2,58.7,29.80,NW,318,0.0,1.0,48,0.00,,,0.00,Wunderground v.1.15,2013-06-14 15:07:00,
2013-06-14 10:08:00,80.3,59.4,29.80,SSE,165,0.0,3.0,49,0.00,,,0.00,Wunderground v.1.15,2013-06-14 15:08:00,
2013-06-14 10:09:00,80.4,58.3,29.80,SSE,168,0.0,3.0,47,0.00,,,0.00,Wunderground v.1.15,2013-06-14 15:09:00,
2013-06-14 10:11:00,80.5,59.6,29.80,South,184,0.0,3.0,49,0.00,,,0.00,Wunderground v.1.15,2013-06-14 15:11:00,
2013-06-14 10:12:00,80.6,60.8,29.80,South,184,0.0,3.0,51,0.00,,,0.00,Wunderground v.1.15,2013-06-14 15:12:00,
2013-06-14 10:13:00,80.8,61.0,29.80,East,101,0.0,3.0,51,0.00,,,0.00,Wunderground v.1.15,2013-06-14 15:13:00,
2013-06-14 10:14:00,80.9,59.9,29.80,SSE,152,0.0,3.0,49,0.00,,,0.00,Wunderground v.1.15,2013-06-14 15:14:00,
2013-06-14 10:16:00,81.0,60.0,29.80,SW,222,0.0,0.0,49,0.00,,,0.00,Wunderground v.1.15,2013-06-14 15:16:00,
2013-06-14 10:17:00,81.1,59.6,29.80,SSE,147,0.0,0.0,48,0.00,,,0.00,Wunderground v.1.15,2013-06-14 15:17:00,
2013-06-14 10:18:00,81.2,58.5,29.80,SE,142,0.0,0.0,46,0.00,,,0.00,Wunderground v.1.15,2013-06-14 15:18:00,
2013-06-14 10:19:00,81.2,57.2,29.80,ENE,75,0.0,7.0,44,0.00,,,0.00,Wunderground v.1.15,2013-06-14 15:19:00,
2013-06-14 10:20:00,81.3,58.5,29.80,ESE,122,2.0,7.0,46,0.00,,,0.00,Wunderground v.1.15,2013-06-14 15:20:00,
2013-06-14 10:21:00,81.3,58.5,29.79,East,94,0.0,7.0,46,0.00,,,0.00,Wunderground v.1.15,2013-06-14 15:21:00,
2013-06-14 10:22:00,81.4,57.4,29.79,North,350,4.0,7.0,44,0.00,,,0.00,Wunderground v.1.15,2013-06-14 15:22:00,
2013-06-14 10:23:00,81.3,59.1,29.79,WNW,302,0.0,7.0,47,0.00,,,0.00,Wunderground v.1.15,2013-06-14 15:23:00,
2013-06-14 10:24:00,81.3,58.5,29.79,ENE,61,0.0,7.0,46,0.00,,,0.00,Wunderground v.1.15,2013-06-14 15:24:00,
2013-06-14 10:25:00,81.3,58.5,29.79,SE,133,0.0,5.0,46,0.00,,,0.00,Wunderground v.1.15,2013-06-14 15:25:00,
2013-06-14 10:26:00,81.3,58.5,29.79,NW,311,4.0,5.0,46,0.00,,,0.00,Wunderground v.1.15,2013-06-14 15:26:00,
2013-06-14 10:27:00,81.2,58.5,29.79,West,265,0.0,5.0,46,0.00,,,0.00,Wunderground v.1.15,2013-06-14 15:27:00,
2013-06-14 10:28:00,81.2,59.1,29.79,NNE,28,0.0,5.0,47,0.00,,,0.00,Wunderground v.1.15,2013-06-14 15:28:00,
2013-06-14 10:30:00,81.2,59.6,29.79,NNW,330,0.0,5.0,48,0.00,,,0.00,Wunderground v.1.15,2013-06-14 15:30:00,
2013-06-14 10:31:00,81.2,61.9,29.79,NNW,331,0.0,5.0,52,0.00,,,0.00,Wunderground v.1.15,2013-06-14 15:31:00,
2013-06-14 10:32:00,81.2,59.6,29.79,East,86,0.0,5.0,48,0.00,,,0.00,Wunderground v.1.15,2013-06-14 15:32:00,
2013-06-14 10:33:00,81.3,60.3,29.79,ESE,111,3.0,5.0,49,0.00,,,0.00,Wunderground v.1.15,2013-06-14 15:33:00,
2013-06-14 10:35:00,81.4,59.8,29.79,NW,318,0.0,1.0,48,0.00,,,0.00,Wunderground v.1.15,2013-06-14 15:35:00,
2013-06-14 10:36:00,81.4,59.2,29.79,East,99,0.0,1.0,47,0.00,,,0.00,Wunderground v.1.15,2013-06-14 15:36:00,
2013-06-14 10:37:00,81.5,59.9,29.79,SE,138,0.0,1.0,48,0.00,,,0.00,Wunderground v.1.15,2013-06-14 15:37:00,
2013-06-14 10:38:00,81.7,61.8,29.79,SSE,168,0.0,1.0,51,0.00,,,0.00,Wunderground v.1.15,2013-06-14 15:38:00,
2013-06-14 10:40:00,81.8,60.8,29.79,South,169,1.0,4.0,49,0.00,,,0.00,Wunderground v.1.15,2013-06-14 15:40:00,
2013-06-14 10:41:00,81.9,60.9,29.79,ESE,120,0.0,4.0,49,0.00,,,0.00,Wunderground v.1.15,2013-06-14 15:41:00,
2013-06-14 10:42:00,82.0,59.8,29.79,South,171,0.0,4.0,47,0.00,,,0.00,Wunderground v.1.15,2013-06-14 15:42:00,
2013-06-14 10:44:00,82.0,58.6,29.79,South,179,0.0,4.0,45,0.00,,,0.00,Wunderground v.1.15,2013-06-14 15:44:00,
2013-06-14 10:45:00,82.0,59.2,29.79,SE,146,0.0,7.0,46,0.00,,,0.00,Wunderground v.1.15,2013-06-14 15:45:00,
2013-06-14 10:47:00,81.9,59.1,29.79,South,190,6.0,7.0,46,0.00,,,0.00,Wunderground v.1.15,2013-06-14 15:47:00,
2013-06-14 10:48:00,81.8,59.0,29.79,South,191,2.0,7.0,46,0.00,,,0.00,Wunderground v.1.15,2013-06-14 15:48:00,
2013-06-14 10:50:00,81.6,59.4,29.79,ESE,105,0.0,8.0,47,0.00,,,0.00,Wunderground v.1.15,2013-06-14 15:50:00,
2013-06-14 10:51:00,81.6,59.4,29.79,ESE,105,0.0,8.0,47,0.00,,,0.00,Wunderground v.1.15,2013-06-14 15:51:00,
2013-06-14 10:52:00,81.6,59.4,29.79,ENE,73,0.0,8.0,47,0.00,,,0.00,Wunderground v.1.15,2013-06-14 15:52:00,
2013-06-14 10:53:00,81.6,59.4,29.79,NNE,24,0.0,8.0,47,0.00,,,0.00,Wunderground v.1.15,2013-06-14 15:53:00,
2013-06-14 10:56:00,81.6,58.8,29.79,South,188,3.0,3.0,46,0.00,,,0.00,Wunderground v.1.15,2013-06-14 15:56:00,
2013-06-14 10:58:00,81.6,58.2,29.79,SSE,154,6.0,7.0,45,0.00,,,0.00,Wunderground v.1.15,2013-06-14 15:58:00,
2013-06-14 10:59:00,81.6,59.4,29.79,NNW,344,6.0,7.0,47,0.00,,,0.00,Wunderground v.1.15,2013-06-14 15:59:00,
2013-06-14 11:01:00,81.4,58.6,29.80,SE,126,2.0,8.0,46,0.00,,,0.00,Wunderground v.1.15,2013-06-14 16:01:00,
2013-06-14 11:03:00,81.4,60.4,29.79,West,272,0.0,8.0,49,0.00,,,0.00,Wunderground v.1.15,2013-06-14 16:03:00,
2013-06-14 11:04:00,81.5,60.5,29.79,South,179,0.0,8.0,49,0.00,,,0.00,Wunderground v.1.15,2013-06-14 16:04:00,
2013-06-14 11:06:00,81.6,60.6,29.79,NNW,337,0.0,4.0,49,0.00,,,0.00,Wunderground v.1.15,2013-06-14 16:06:00,
2013-06-14 11:08:00,81.6,61.7,29.79,South,184,3.0,4.0,51,0.00,,,0.00,Wunderground v.1.15,2013-06-14 16:08:00,
2013-06-14 11:09:00,81.6,61.7,29.79,South,187,0.0,4.0,51,0.00,,,0.00,Wunderground v.1.15,2013-06-14 16:09:00,
2013-06-14 11:12:00,81.8,59.0,29.79,East,96,0.0,5.0,46,0.00,,,0.00,Wunderground v.1.15,2013-06-14 16:12:00,
2013-06-14 11:14:00,81.9,60.3,29.79,NE,41,0.0,5.0,48,0.00,,,0.00,Wunderground v.1.15,2013-06-14 16:14:00,
2013-06-14 11:15:00,82.0,60.4,29.79,WNW,302,0.0,5.0,48,0.00,,,0.00,Wunderground v.1.15,2013-06-14 16:15:00,
2013-06-14 11:16:00,82.0,61.0,29.79,WNW,302,0.0,1.0,49,0.00,,,0.00,Wunderground v.1.15,2013-06-14 16:16:00,
2013-06-14 11:17:00,82.2,60.6,29.78,NNW,334,0.0,1.0,48,0.00,,,0.00,Wunderground v.1.15,2013-06-14 16:17:00,
2013-06-14 11:19:00,82.3,60.1,29.79,SW,235,0.0,7.0,47,0.00,,,0.00,Wunderground v.1.15,2013-06-14 16:19:00,
2013-06-14 11:20:00,82.3,59.4,29.79,NNW,330,0.0,7.0,46,0.00,,,0.00,Wunderground v.1.15,2013-06-14 16:20:00,
2013-06-14 11:21:00,82.3,59.4,29.79,NNW,330,0.0,7.0,46,0.00,,,0.00,Wunderground v.1.15,2013-06-14 16:21:00,
2013-06-14 11:22:00,82.3,60.6,29.79,SE,146,0.0,7.0,48,0.00,,,0.00,Wunderground v.1.15,2013-06-14 16:22:00,
2013-06-14 11:24:00,82.4,58.9,29.78,NW,321,8.0,8.0,45,0.00,,,0.00,Wunderground v.1.15,2013-06-14 16:24:00,
2013-06-14 11:25:00,82.3,60.1,29.78,North,5,5.0,6.0,47,0.00,,,0.00,Wunderground v.1.15,2013-06-14 16:25:00,
2013-06-14 11:26:00,82.2,60.0,29.78,NNW,329,3.0,6.0,47,0.00,,,0.00,Wunderground v.1.15,2013-06-14 16:26:00,
2013-06-14 11:28:00,82.1,61.0,29.78,NNW,333,0.0,6.0,49,0.00,,,0.00,Wunderground v.1.15,2013-06-14 16:28:00,
2013-06-14 11:29:00,82.1,61.0,29.78,NW,306,0.0,6.0,49,0.00,,,0.00,Wunderground v.1.15,2013-06-14 16:29:00,
2013-06-14 11:30:00,82.1,61.0,29.78,SE,141,4.0,6.0,49,0.00,,,0.00,Wunderground v.1.15,2013-06-14 16:30:00,
2013-06-14 11:31:00,82.1,60.5,29.78,South,173,2.0,6.0,48,0.00,,,0.00,Wunderground v.1.15,2013-06-14 16:31:00,
2013-06-14 11:34:00,82.3,60.1,29.78,SSW,210,0.0,7.0,47,0.00,,,0.00,Wunderground v.1.15,2013-06-14 16:34:00,
2013-06-14 11:35:00,82.3,61.8,29.78,SSW,211,0.0,3.0,50,0.00,,,0.00,Wunderground v.1.15,2013-06-14 16:35:00,
2013-06-14 11:36:00,82.4,60.7,29.78,NE,49,2.0,5.0,48,0.00,,,0.00,Wunderground v.1.15,2013-06-14 16:36:00,
2013-06-14 11:37:00,82.5,60.2,29.78,ENE,76,0.0,5.0,47,0.00,,,0.00,Wunderground v.1.15,2013-06-14 16:37:00,
2013-06-14 11:40:00,82.6,60.9,29.78,SE,142,0.0,6.0,48,0.00,,,0.00,Wunderground v.1.15,2013-06-14 16:40:00,
2013-06-14 11:41:00,82.7,60.4,29.78,SE,143,0.0,6.0,47,0.00,,,0.00,Wunderground v.1.15,2013-06-14 16:41:00,
2013-06-14 11:43:00,82.7,62.2,29.78,NW,306,0.0,7.0,50,0.00,,,0.00,Wunderground v.1.15,2013-06-14 16:43:00,
2013-06-14 11:45:00,82.8,61.1,29.78,NW,324,0.0,1.0,48,0.00,,,0.00,Wunderground v.1.15,2013-06-14 16:45:00,
2013-06-14 11:47:00,82.9,61.2,29.78,NE,55,0.0,1.0,48,0.00,,,0.00,Wunderground v.1.15,2013-06-14 16:47:00,
2013-06-14 11:48:00,83.0,61.9,29.78,South,188,0.0,6.0,49,0.00,,,0.00,Wunderground v.1.15,2013-06-14 16:48:00,
2013-06-14 11:50:00,83.0,61.3,29.78,South,183,2.0,6.0,48,0.00,,,0.00,Wunderground v.1.15,2013-06-14 16:50:00,
2013-06-14 11:53:00,83.2,61.5,29.78,SSE,152,0.0,7.0,48,0.00,,,0.00,Wunderground v.1.15,2013-06-14 16:53:00,
2013-06-14 11:55:00,83.1,61.4,29.78,WNW,291,0.0,5.0,48,0.00,,,0.00,Wunderground v.1.15,2013-06-14 16:55:00,
2013-06-14 11:56:00,83.1,61.4,29.78,WNW,291,0.0,5.0,48,0.00,,,0.00,Wunderground v.1.15,2013-06-14 16:56:00,
2013-06-14 11:58:00,83.1,62.0,29.78,SSW,213,0.0,5.0,49,0.00,,,0.00,Wunderground v.1.15,2013-06-14 16:58:00,
2013-06-14 12:01:00,83.2,61.5,29.78,West,279,0.0,5.0,48,0.00,,,0.00,Wunderground v.1.15,2013-06-14 17:01:00,
2013-06-14 12:03:00,83.2,60.3,29.78,SSE,148,0.0,8.0,46,0.00,,,0.00,Wunderground v.1.15,2013-06-14 17:03:00,
2013-06-14 12:04:00,83.2,61.5,29.78,SSW,192,0.0,8.0,48,0.00,,,0.00,Wunderground v.1.15,2013-06-14 17:04:00,
2013-06-14 12:06:00,83.3,62.1,29.78,East,90,0.0,1.0,49,0.00,,,0.00,Wunderground v.1.15,2013-06-14 17:06:00,
2013-06-14 12:08:00,83.4,61.7,29.78,NE,45,0.0,6.0,48,0.00,,,0.00,Wunderground v.1.15,2013-06-14 17:08:00,
2013-06-14 12:09:00,83.4,62.8,29.78,NW,311,0.0,6.0,50,0.00,,,0.00,Wunderground v.1.15,2013-06-14 17:09:00,
2013-06-14 12:11:00,83.4,62.8,29.78,NW,304,0.0,6.0,50,0.00,,,0.00,Wunderground v.1.15,2013-06-14 17:11:00,
2013-06-14 12:13:00,83.5,61.1,29.78,SSE,163,0.0,7.0,47,0.00,,,0.00,Wunderground v.1.15,2013-06-14 17:13:00,
2013-06-14 12:15:00,83.6,62.4,29.78,North,355,1.0,1.0,49,0.00,,,0.00,Wunderground v.1.15,2013-06-14 17:15:00,
2013-06-14 12:16:00,83.5,61.7,29.78,ESE,111,0.0,3.0,48,0.00,,,0.00,Wunderground v.1.15,2013-06-14 17:16:00,
2013-06-14 12:17:00,83.5,62.9,29.78,ESE,111,0.0,3.0,50,0.00,,,0.00,Wunderground v.1.15,2013-06-14 17:17:00,
2013-06-14 12:19:00,83.6,61.8,29.78,NNW,348,0.0,3.0,48,0.00,,,0.00,Wunderground v.1.15,2013-06-14 17:19:00,
2013-06-14 12:20:00,83.6,61.2,29.78,NW,317,0.0,3.0,47,0.00,,,0.00,Wunderground v.1.15,2013-06-14 17:20:00,
2013-06-14 12:21:00,83.6,61.8,29.78,NW,318,0.0,3.0,48,0.00,,,0.00,Wunderground v.1.15,2013-06-14 17:21:00,
2013-06-14 12:22:00,83.6,63.0,29.78,NW,318,0.0,3.0,50,0.00,,,0.00,Wunderground v.1.15,2013-06-14 17:22:00,
2013-06-14 12:24:00,83.4,61.1,29.77,WNW,283,0.0,6.0,47,0.00,,,0.00,Wunderground v.1.15,2013-06-14 17:24:00,
2013-06-14 12:26:00,83.3,60.4,29.78,NNW,333,4.0,7.0,46,0.00,,,0.00,Wunderground v.1.15,2013-06-14 17:26:00,
2013-06-14 12:27:00,83.1,60.2,29.78,SW,234,0.0,7.0,46,0.00,,,0.00,Wunderground v.1.15,2013-06-14 17:27:00,
2013-06-14 12:29:00,82.9,60.6,29.77,SW,215,0.0,7.0,47,0.00,,,0.00,Wunderground v.1.15,2013-06-14 17:29:00,
2013-06-14 12:31:00,83.0,61.9,29.77,NNW,329,4.0,7.0,49,0.00,,,0.00,Wunderground v.1.15,2013-06-14 17:31:00,
2013-06-14 12:32:00,83.0,60.1,29.77,East,84,0.0,7.0,46,0.00,,,0.00,Wunderground v.1.15,2013-06-14 17:32:00,
2013-06-14 12:34:00,83.0,60.7,29.77,ESE,118,0.0,7.0,47,0.00,,,0.00,Wunderground v.1.15,2013-06-14 17:34:00,
2013-06-14 12:36:00,83.1,61.4,29.77,SSE,164,0.0,5.0,48,0.00,,,0.00,Wunderground v.1.15,2013-06-14 17:36:00,
2013-06-14 12:37:00,83.2,61.5,29.77,SSW,200,0.0,5.0,48,0.00,,,0.00,Wunderground v.1.15,2013-06-14 17:37:00,
2013-06-14 12:39:00,83.3,62.7,29.77,SSW,192,0.0,5.0,50,0.00,,,0.00,Wunderground v.1.15,2013-06-14 17:39:00,
2013-06-14 12:41:00,83.4,62.2,29.77,NNW,329,0.0,5.0,49,0.00,,,0.00,Wunderground v.1.15,2013-06-14 17:41:00,
2013-06-14 12:42:00,83.4,61.1,29.77,NNW,329,0.0,5.0,47,0.00,,,0.00,Wunderground v.1.15,2013-06-14 17:42:00,
2013-06-14 12:43:00,83.3,60.4,29.77,NW,319,4.0,5.0,46,0.00,,,0.00,Wunderground v.1.15,2013-06-14 17:43:00,
2013-06-14 12:45:00,83.2,60.9,29.77,NW,326,0.0,1.0,47,0.00,,,0.00,Wunderground v.1.15,2013-06-14 17:45:00,
2013-06-14 12:47:00,83.2,62.1,29.77,SSW,207,7.0,7.0,49,0.00,,,0.00,Wunderground v.1.15,2013-06-14 17:47:00,
2013-06-14 12:48:00,83.2,62.1,29.77,South,189,0.0,7.0,49,0.00,,,0.00,Wunderground v.1.15,2013-06-14 17:48:00,
2013-06-14 12:49:00,83.3,61.0,29.77,ESE,111,0.0,7.0,47,0.00,,,0.00,Wunderground v.1.15,2013-06-14 17:49:00,
2013-06-14 12:51:00,83.3,61.0,29.77,NW,319,0.0,7.0,47,0.00,,,0.00,Wunderground v.1.15,2013-06-14 17:51:00,
2013-06-14 12:52:00,83.4,61.7,29.77,ENE,62,0.0,7.0,48,0.00,,,0.00,Wunderground v.1.15,2013-06-14 17:52:00,
2013-06-14 12:54:00,83.6,61.8,29.77,West,270,0.0,9.0,48,0.00,,,0.00,Wunderground v.1.15,2013-06-14 17:54:00,
2013-06-14 12:55:00,83.6,62.4,29.77,NW,313,0.0,1.0,49,0.00,,,0.00,Wunderground v.1.15,2013-06-14 17:55:00,
2013-06-14 12:57:00,83.8,60.8,29.77,WNW,287,7.0,8.0,46,0.00,,,0.00,Wunderground v.1.15,2013-06-14 17:57:00,
2013-06-14 12:58:00,83.8,60.8,29.77,WNW,290,7.0,8.0,46,0.00,,,0.00,Wunderground v.1.15,2013-06-14 17:58:00,
2013-06-14 12:59:00,83.8,61.4,29.77,NW,311,8.0,8.0,47,0.00,,,0.00,Wunderground v.1.15,2013-06-14 17:59:00,
2013-06-14 13:00:00,83.7,61.3,29.77,NW,315,3.0,8.0,47,0.00,,,0.00,Wunderground v.1.15,2013-06-14 18:00:00,
2013-06-14 13:02:00,83.7,60.1,29.77,NNW,336,0.0,8.0,45,0.00,,,0.00,Wunderground v.1.15,2013-06-14 18:02:00,
2013-06-14 13:03:00,83.7,61.9,29.77,NNW,336,0.0,8.0,48,0.00,,,0.00,Wunderground v.1.15,2013-06-14 18:03:00,
2013-06-14 13:04:00,83.8,62.6,29.76,SE,141,0.0,8.0,49,0.00,,,0.00,Wunderground v.1.15,2013-06-14 18:04:00,
2013-06-14 13:05:00,83.8,62.6,29.76,East,92,1.0,2.0,49,0.00,,,0.00,Wunderground v.1.15,2013-06-14 18:05:00,
2013-06-14 13:08:00,83.9,61.5,29.76,North,5,2.0,4.0,47,0.00,,,0.00,Wunderground v.1.15,2013-06-14 18:08:00,
2013-06-14 13:10:00,84.0,64.5,29.76,East,91,0.0,4.0,52,0.00,,,0.00,Wunderground v.1.15,2013-06-14 18:10:00,
2013-06-14 13:13:00,84.3,61.3,29.76,NNW,336,0.0,5.0,46,0.00,,,0.00,Wunderground v.1.15,2013-06-14 18:13:00,
2013-06-14 13:14:00,84.3,61.3,29.76,East,93,0.0,5.0,46,0.00,,,0.00,Wunderground v.1.15,2013-06-14 18:14:00,
2013-06-14 13:15:00,84.5,62.1,29.76,ENE,74,0.0,3.0,47,0.00,,,0.00,Wunderground v.1.15,2013-06-14 18:15:00,
2013-06-14 13:16:00,84.5,62.1,29.76,ESE,103,3.0,5.0,47,0.00,,,0.00,Wunderground v.1.15,2013-06-14 18:16:00,
2013-06-14 13:18:00,84.7,61.6,29.76,NE,35,0.0,6.0,46,0.00,,,0.00,Wunderground v.1.15,2013-06-14 18:18:00,
2013-06-14 13:19:00,84.7,61.6,29.76,West,281,5.0,6.0,46,0.00,,,0.00,Wunderground v.1.15,2013-06-14 18:19:00,
2013-06-14 13:21:00,84.7,62.2,29.76,WNW,289,0.0,6.0,47,0.00,,,0.00,Wunderground v.1.15,2013-06-14 18:21:00,
2013-06-14 13:22:00,84.7,62.2,29.76,WNW,288,3.0,6.0,47,0.00,,,0.00,Wunderground v.1.15,2013-06-14 18:22:00,
2013-06-14 13:23:00,84.7,61.6,29.75,NW,307,0.0,6.0,46,0.00,,,0.00,Wunderground v.1.15,2013-06-14 18:23:00,
2013-06-14 13:24:00,84.6,61.5,29.75,WNW,294,0.0,6.0,46,0.00,,,0.00,Wunderground v.1.15,2013-06-14 18:24:00,
2013-06-14 13:26:00,84.5,63.2,29.75,NW,314,0.0,1.0,49,0.00,,,0.00,Wunderground v.1.15,2013-06-14 18:26:00,
2013-06-14 13:27:00,84.5,60.8,29.75,East,87,0.0,7.0,45,0.00,,,0.00,Wunderground v.1.15,2013-06-14 18:27:00,
2013-06-14 13:28:00,84.5,60.8,29.75,West,279,0.0,7.0,45,0.00,,,0.00,Wunderground v.1.15,2013-06-14 18:28:00,
2013-06-14 13:29:00,84.5,60.8,29.75,West,263,0.0,7.0,45,0.00,,,0.00,Wunderground v.1.15,2013-06-14 18:29:00,
2013-06-14 13:31:00,84.5,62.7,29.75,South,175,0.0,7.0,48,0.00,,,0.00,Wunderground v.1.15,2013-06-14 18:31:00,
2013-06-14 13:33:00,84.6,62.1,29.75,East,92,0.0,7.0,47,0.00,,,0.00,Wunderground v.1.15,2013-06-14 18:33:00,
2013-06-14 13:34:00,84.7,63.4,29.75,NNW,348,5.0,8.0,49,0.00,,,0.00,Wunderground v.1.15,2013-06-14 18:34:00,
2013-06-14 13:36:00,84.7,62.8,29.75,SW,232,1.0,7.0,48,0.00,,,0.00,Wunderground v.1.15,2013-06-14 18:36:00,
2013-06-14 13:39:00,84.7,61.6,29.75,NNW,346,3.0,8.0,46,0.00,,,0.00,Wunderground v.1.15,2013-06-14 18:39:00,
2013-06-14 13:42:00,84.7,62.2,29.75,South,175,0.0,9.0,47,0.00,,,0.00,Wunderground v.1.15,2013-06-14 18:42:00,
2013-06-14 13:44:00,84.8,61.7,29.75,East,98,1.0,9.0,46,0.00,,,0.00,Wunderground v.1.15,2013-06-14 18:44:00,
2013-06-14 13:47:00,84.7,62.8,29.75,East,86,0.0,5.0,48,0.00,,,0.00,Wunderground v.1.15,2013-06-14 18:47:00,
2013-06-14 13:49:00,84.8,63.5,29.75,ESE,116,0.0,5.0,49,0.00,,,0.00,Wunderground v.1.15,2013-06-14 18:49:00,
2013-06-14 13:50:00,84.8,62.3,29.75,ESE,115,0.0,5.0,47,0.00,,,0.00,Wunderground v.1.15,2013-06-14 18:50:00,
2013-06-14 13:51:00,84.9,63.0,29.75,NE,42,4.0,5.0,48,0.00,,,0.00,Wunderground v.1.15,2013-06-14 18:51:00,
2013-06-14 13:52:00,84.9,63.6,29.75,North,360,0.0,5.0,49,0.00,,,0.00,Wunderground v.1.15,2013-06-14 18:52:00,
2013-06-14 13:54:00,85.1,62.6,29.75,NNE,15,0.0,5.0,47,0.00,,,0.00,Wunderground v.1.15,2013-06-14 18:54:00,
2013-06-14 13:55:00,85.2,63.3,29.75,NW,317,3.0,9.0,48,0.00,,,0.00,Wunderground v.1.15,2013-06-14 18:55:00,
2013-06-14 13:57:00,85.2,62.7,29.75,WNW,291,3.0,9.0,47,0.00,,,0.00,Wunderground v.1.15,2013-06-14 18:57:00,
2013-06-14 14:00:00,85.2,63.3,29.75,WSW,251,0.0,9.0,48,0.00,,,0.00,Wunderground v.1.15,2013-06-14 19:00:00,
2013-06-14 14:01:00,85.2,62.1,29.75,NW,306,1.0,9.0,46,0.00,,,0.00,Wunderground v.1.15,2013-06-14 19:01:00,
2013-06-14 14:02:00,85.3,64.6,29.75,WNW,284,0.0,9.0,50,0.00,,,0.00,Wunderground v.1.15,2013-06-14 19:02:00,
2013-06-14 14:03:00,85.3,64.6,29.75,WNW,284,0.0,9.0,50,0.00,,,0.00,Wunderground v.1.15,2013-06-14 19:03:00,
2013-06-14 14:05:00,85.3,62.2,29.75,SSE,151,6.0,6.0,46,0.00,,,0.00,Wunderground v.1.15,2013-06-14 19:05:00,
2013-06-14 14:06:00,85.4,62.9,29.75,WNW,296,0.0,7.0,47,0.00,,,0.00,Wunderground v.1.15,2013-06-14 19:06:00,
2013-06-14 14:08:00,85.4,61.6,29.75,NW,309,6.0,8.0,45,0.00,,,0.00,Wunderground v.1.15,2013-06-14 19:08:00,
2013-06-14 14:10:00,85.2,62.1,29.75,SW,226,0.0,8.0,46,0.00,,,0.00,Wunderground v.1.15,2013-06-14 19:10:00,
2013-06-14 14:11:00,85.2,61.5,29.75,NNE,27,0.0,8.0,45,0.00,,,0.00,Wunderground v.1.15,2013-06-14 19:11:00,
2013-06-14 14:13:00,85.2,60.8,29.75,ESE,113,0.0,8.0,44,0.00,,,0.00,Wunderground v.1.15,2013-06-14 19:13:00,
2013-06-14 14:14:00,85.2,62.1,29.75,SSW,210,0.0,8.0,46,0.00,,,0.00,Wunderground v.1.15,2013-06-14 19:14:00,
2013-06-14 14:15:00,85.2,62.1,29.75,North,360,0.0,2.0,46,0.00,,,0.00,Wunderground v.1.15,2013-06-14 19:15:00,
2013-06-14 14:16:00,85.3,62.2,29.75,ESE,109,7.0,7.0,46,0.00,,,0.00,Wunderground v.1.15,2013-06-14 19:16:00,
2013-06-14 14:18:00,85.3,62.2,29.75,WNW,300,0.0,7.0,46,0.00,,,0.00,Wunderground v.1.15,2013-06-14 19:18:00,
2013-06-14 14:19:00,85.3,62.8,29.75,West,259,0.0,7.0,47,0.00,,,0.00,Wunderground v.1.15,2013-06-14 19:19:00,
2013-06-14 14:20:00,85.2,61.5,29.75,North,351,0.0,7.0,45,0.00,,,0.00,Wunderground v.1.15,2013-06-14 19:20:00,
2013-06-14 14:21:00,85.2,62.1,29.75,NNW,345,3.0,7.0,46,0.00,,,0.00,Wunderground v.1.15,2013-06-14 19:21:00,
2013-06-14 14:24:00,85.1,62.6,29.75,NW,312,0.0,7.0,47,0.00,,,0.00,Wunderground v.1.15,2013-06-14 19:24:00,
2013-06-14 14:25:00,85.1,62.6,29.75,West,278,0.0,1.0,47,0.00,,,0.00,Wunderground v.1.15,2013-06-14 19:25:00,
2013-06-14 14:26:00,85.2,63.9,29.75,South,191,0.0,3.0,49,0.00,,,0.00,Wunderground v.1.15,2013-06-14 19:26:00,
2013-06-14 14:29:00,85.3,62.8,29.75,SSW,202,0.0,7.0,47,0.00,,,0.00,Wunderground v.1.15,2013-06-14 19:29:00,
2013-06-14 14:31:00,85.4,62.3,29.75,SE,131,6.0,7.0,46,0.00,,,0.00,Wunderground v.1.15,2013-06-14 19:31:00,
2013-06-14 14:32:00,85.4,62.9,29.74,NNW,348,0.0,7.0,47,0.00,,,0.00,Wunderground v.1.15,2013-06-14 19:32:00,
2013-06-14 14:35:00,85.6,62.4,29.74,NNE,18,0.0,0.0,46,0.00,,,0.00,Wunderground v.1.15,2013-06-14 19:35:00,
2013-06-14 14:36:00,85.6,61.8,29.75,NNW,338,3.0,6.0,45,0.00,,,0.00,Wunderground v.1.15,2013-06-14 19:36:00,
2013-06-14 14:37:00,85.6,61.8,29.75,NW,309,2.0,6.0,45,0.00,,,0.00,Wunderground v.1.15,2013-06-14 19:37:00,
2013-06-14 14:38:00,85.5,61.1,29.75,NNW,340,4.0,6.0,44,0.00,,,0.00,Wunderground v.1.15,2013-06-14 19:38:00,
2013-06-14 14:41:00,85.3,61.6,29.75,East,96,3.0,7.0,45,0.00,,,0.00,Wunderground v.1.15,2013-06-14 19:41:00,
2013-06-14 14:42:00,85.2,62.7,29.75,East,82,0.0,7.0,47,0.00,,,0.00,Wunderground v.1.15,2013-06-14 19:42:00,
2013-06-14 14:43:00,85.2,61.5,29.75,ENE,67,0.0,7.0,45,0.00,,,0.00,Wunderground v.1.15,2013-06-14 19:43:00,
2013-06-14 14:46:00,85.3,60.9,29.75,West,277,0.0,1.0,44,0.00,,,0.00,Wunderground v.1.15,2013-06-14 19:46:00,
2013-06-14 14:47:00,85.3,60.9,29.75,WNW,295,1.0,4.0,44,0.00,,,0.00,Wunderground v.1.15,2013-06-14 19:47:00,
2013-06-14 14:48:00,85.3,61.6,29.75,North,349,0.0,4.0,45,0.00,,,0.00,Wunderground v.1.15,2013-06-14 19:48:00,
2013-06-14 14:51:00,85.5,63.0,29.75,NW,321,0.0,4.0,47,0.00,,,0.00,Wunderground v.1.15,2013-06-14 19:51:00,
2013-06-14 14:52:00,85.5,61.1,29.74,NW,315,2.0,4.0,44,0.00,,,0.00,Wunderground v.1.15,2013-06-14 19:52:00,
2013-06-14 14:53:00,85.6,61.8,29.74,NW,323,0.0,4.0,45,0.00,,,0.00,Wunderground v.1.15,2013-06-14 19:53:00,
2013-06-14 14:55:00,85.6,61.8,29.74,ESE,113,0.0,1.0,45,0.00,,,0.00,Wunderground v.1.15,2013-06-14 19:55:00,
2013-06-14 14:56:00,85.6,62.4,29.74,NW,313,0.0,7.0,46,0.00,,,0.00,Wunderground v.1.15,2013-06-14 19:56:00,
2013-06-14 14:57:00,85.6,63.1,29.74,NW,304,0.0,7.0,47,0.00,,,0.00,Wunderground v.1.15,2013-06-14 19:57:00,
2013-06-14 14:58:00,85.6,63.1,29.74,NW,309,0.0,7.0,47,0.00,,,0.00,Wunderground v.1.15,2013-06-14 19:58:00,
2013-06-14 15:00:00,85.8,62.0,29.75,ESE,105,4.0,7.0,45,0.00,,,0.00,Wunderground v.1.15,2013-06-14 20:00:00,
2013-06-14 15:02:00,85.9,61.5,29.74,South,178,0.0,7.0,44,0.00,,,0.00,Wunderground v.1.15,2013-06-14 20:02:00,
2013-06-14 15:03:00,85.9,62.7,29.74,SSE,155,6.0,7.0,46,0.00,,,0.00,Wunderground v.1.15,2013-06-14 20:03:00,
2013-06-14 15:06:00,85.7,61.3,29.74,South,186,0.0,1.0,44,0.00,,,0.00,Wunderground v.1.15,2013-06-14 20:06:00,
2013-06-14 15:07:00,85.7,61.9,29.74,South,184,0.0,1.0,45,0.00,,,0.00,Wunderground v.1.15,2013-06-14 20:07:00,
2013-06-14 15:08:00,85.7,63.8,29.74,South,184,0.0,1.0,48,0.00,,,0.00,Wunderground v.1.15,2013-06-14 20:08:00,
2013-06-14 15:11:00,85.9,62.1,29.74,West,279,0.0,1.0,45,0.00,,,0.00,Wunderground v.1.15,2013-06-14 20:11:00,
2013-06-14 15:12:00,85.9,61.5,29.74,WNW,301,0.0,1.0,44,0.00,,,0.00,Wunderground v.1.15,2013-06-14 20:12:00,
2013-06-14 15:13:00,85.8,60.7,29.74,West,267,0.0,4.0,43,0.00,,,0.00,Wunderground v.1.15,2013-06-14 20:13:00,
2013-06-14 15:17:00,85.9,62.1,29.74,NW,304,0.0,0.0,45,0.00,,,0.00,Wunderground v.1.15,2013-06-14 20:17:00,
2013-06-14 15:18:00,85.9,62.1,29.74,SSE,167,2.0,5.0,45,0.00,,,0.00,Wunderground v.1.15,2013-06-14 20:18:00,
2013-06-14 15:19:00,85.9,62.1,29.74,East,94,0.0,5.0,45,0.00,,,0.00,Wunderground v.1.15,2013-06-14 20:19:00,
2013-06-14 15:22:00,85.9,62.7,29.74,SSE,161,1.0,6.0,46,0.00,,,0.00,Wunderground v.1.15,2013-06-14 20:22:00,
2013-06-14 15:24:00,85.9,62.7,29.74,SSE,161,0.0,6.0,46,0.00,,,0.00,Wunderground v.1.15,2013-06-14 20:24:00,
2013-06-14 15:25:00,85.9,62.7,29.74,WNW,290,2.0,2.0,46,0.00,,,0.00,Wunderground v.1.15,2013-06-14 20:25:00,
2013-06-14 15:27:00,85.9,61.5,29.74,WNW,298,2.0,4.0,44,0.00,,,0.00,Wunderground v.1.15,2013-06-14 20:27:00,
2013-06-14 15:28:00,85.9,62.1,29.74,WNW,296,0.0,4.0,45,0.00,,,0.00,Wunderground v.1.15,2013-06-14 20:28:00,
2013-06-14 15:29:00,85.9,63.3,29.74,WNW,296,0.0,4.0,47,0.00,,,0.00,Wunderground v.1.15,2013-06-14 20:29:00,
2013-06-14 15:30:00,85.9,63.3,29.74,WNW,296,0.0,4.0,47,0.00,,,0.00,Wunderground v.1.15,2013-06-14 20:30:00,
2013-06-14 15:32:00,85.9,62.1,29.73,North,355,4.0,9.0,45,0.00,,,0.00,Wunderground v.1.15,2013-06-14 20:32:00,
2013-06-14 15:34:00,85.9,62.7,29.73,North,350,4.0,9.0,46,0.00,,,0.00,Wunderground v.1.15,2013-06-14 20:34:00,
2013-06-14 15:35:00,85.9,62.7,29.74,North,355,8.0,9.0,46,0.00,,,0.00,Wunderground v.1.15,2013-06-14 20:35:00,
2013-06-14 15:37:00,85.8,62.0,29.73,SSE,148,7.0,8.0,45,0.00,,,0.00,Wunderground v.1.15,2013-06-14 20:37:00,
2013-06-14 15:40:00,85.9,62.7,29.73,NW,313,0.0,8.0,46,0.00,,,0.00,Wunderground v.1.15,2013-06-14 20:40:00,
2013-06-14 15:41:00,85.9,62.7,29.73,WNW,282,1.0,8.0,46,0.00,,,0.00,Wunderground v.1.15,2013-06-14 20:41:00,
2013-06-14 15:42:00,85.9,62.1,29.73,NNW,341,0.0,8.0,45,0.00,,,0.00,Wunderground v.1.15,2013-06-14 20:42:00,
2013-06-14 15:45:00,85.9,63.3,29.73,WNW,284,0.0,2.0,47,0.00,,,0.00,Wunderground v.1.15,2013-06-14 20:45:00,
2013-06-14 15:46:00,85.9,63.3,29.73,West,263,0.0,2.0,47,0.00,,,0.00,Wunderground v.1.15,2013-06-14 20:46:00,
2013-06-14 15:48:00,86.1,62.3,29.73,NW,308,0.0,2.0,45,0.00,,,0.00,Wunderground v.1.15,2013-06-14 20:48:00,
2013-06-14 15:50:00,86.1,62.3,29.73,NNW,334,0.0,2.0,45,0.00,,,0.00,Wunderground v.1.15,2013-06-14 20:50:00,
2013-06-14 15:51:00,86.2,62.4,29.73,NNW,334,0.0,2.0,45,0.00,,,0.00,Wunderground v.1.15,2013-06-14 20:51:00,
2013-06-14 15:52:00,86.2,62.4,29.73,NNW,334,0.0,2.0,45,0.00,,,0.00,Wunderground v.1.15,2013-06-14 20:52:00,
2013-06-14 15:54:00,86.3,61.8,29.73,NW,310,0.0,5.0,44,0.00,,,0.00,Wunderground v.1.15,2013-06-14 20:54:00,
2013-06-14 15:55:00,86.3,61.8,29.73,NW,306,0.0,0.0,44,0.00,,,0.00,Wunderground v.1.15,2013-06-14 20:55:00,
2013-06-14 15:57:00,86.3,61.2,29.73,NW,306,0.0,0.0,43,0.00,,,0.00,Wunderground v.1.15,2013-06-14 20:57:00,
2013-06-14 15:59:00,86.3,62.5,29.73,NW,306,0.0,0.0,45,0.00,,,0.00,Wunderground v.1.15,2013-06-14 20:59:00,
2013-06-14 16:00:00,86.3,61.8,29.72,West,261,0.0,0.0,44,0.00,,,0.00,Wunderground v.1.15,2013-06-14 21:00:00,
2013-06-14 16:02:00,86.3,62.5,29.72,NW,312,0.0,0.0,45,0.00,,,0.00,Wunderground v.1.15,2013-06-14 21:02:00,
2013-06-14 16:04:00,86.2,61.7,29.73,North,360,2.0,4.0,44,0.00,,,0.00,Wunderground v.1.15,2013-06-14 21:04:00,
2013-06-14 16:05:00,86.2,61.7,29.73,ESE,111,0.0,1.0,44,0.00,,,0.00,Wunderground v.1.15,2013-06-14 21:05:00,
2013-06-14 16:07:00,86.2,62.4,29.73,SE,130,0.0,1.0,45,0.00,,,0.00,Wunderground v.1.15,2013-06-14 21:07:00,
2013-06-14 16:08:00,86.2,62.4,29.73,NW,314,0.0,1.0,45,0.00,,,0.00,Wunderground v.1.15,2013-06-14 21:08:00,
2013-06-14 16:10:00,86.2,61.7,29.73,North,360,1.0,4.0,44,0.00,,,0.00,Wunderground v.1.15,2013-06-14 21:10:00,
2013-06-14 16:11:00,86.2,61.7,29.73,ESE,103,4.0,4.0,44,0.00,,,0.00,Wunderground v.1.15,2013-06-14 21:11:00,
2013-06-14 16:13:00,86.2,61.1,29.73,South,180,1.0,5.0,43,0.00,,,0.00,Wunderground v.1.15,2013-06-14 21:13:00,
2013-06-14 16:14:00,86.2,61.7,29.73,SE,142,3.0,5.0,44,0.00,,,0.00,Wunderground v.1.15,2013-06-14 21:14:00,
2013-06-14 16:15:00,86.2,61.7,29.73,WNW,302,3.0,3.0,44,0.00,,,0.00,Wunderground v.1.15,2013-06-14 21:15:00,
2013-06-14 16:16:00,86.2,62.4,29.73,East,92,0.0,4.0,45,0.00,,,0.00,Wunderground v.1.15,2013-06-14 21:16:00,
2013-06-14 16:18:00,86.2,63.0,29.73,SE,139,0.0,4.0,46,0.00,,,0.00,Wunderground v.1.15,2013-06-14 21:18:00,
2013-06-14 16:20:00,86.1,61.6,29.73,South,178,0.0,4.0,44,0.00,,,0.00,Wunderground v.1.15,2013-06-14 21:20:00,
2013-06-14 16:21:00,86.1,61.6,29.73,ESE,121,2.0,4.0,44,0.00,,,0.00,Wunderground v.1.15,2013-06-14 21:21:00,
2013-06-14 16:24:00,86.1,61.6,29.73,NW,321,0.0,4.0,44,0.00,,,0.00,Wunderground v.1.15,2013-06-14 21:24:00,
2013-06-14 16:25:00,86.0,62.2,29.72,NNW,345,0.0,0.0,45,0.00,,,0.00,Wunderground v.1.15,2013-06-14 21:25:00,
2013-06-14 16:27:00,86.0,62.2,29.73,NNW,344,0.0,0.0,45,0.00,,,0.00,Wunderground v.1.15,2013-06-14 21:27:00,
2013-06-14 16:29:00,86.0,61.5,29.72,NNW,336,4.0,4.0,44,0.00,,,0.00,Wunderground v.1.15,2013-06-14 21:29:00,
2013-06-14 16:30:00,86.0,61.5,29.72,SW,219,0.0,4.0,44,0.00,,,0.00,Wunderground v.1.15,2013-06-14 21:30:00,
2013-06-14 16:32:00,86.0,62.8,29.72,NW,325,5.0,5.0,46,0.00,,,0.00,Wunderground v.1.15,2013-06-14 21:32:00,
2013-06-14 16:34:00,85.9,60.8,29.72,NW,313,3.0,8.0,43,0.00,,,0.00,Wunderground v.1.15,2013-06-14 21:34:00,
2013-06-14 16:35:00,85.8,61.4,29.72,NNW,329,0.0,3.0,44,0.00,,,0.00,Wunderground v.1.15,2013-06-14 21:35:00,
2013-06-14 16:36:00,85.7,60.6,29.72,East,82,0.0,3.0,43,0.00,,,0.00,Wunderground v.1.15,2013-06-14 21:36:00,
2013-06-14 16:37:00,85.7,61.9,29.71,SE,132,0.0,3.0,45,0.00,,,0.00,Wunderground v.1.15,2013-06-14 21:37:00,
2013-06-14 16:39:00,85.8,62.0,29.71,ESE,113,0.0,3.0,45,0.00,,,0.00,Wunderground v.1.15,2013-06-14 21:39:00,
2013-06-14 16:40:00,85.8,62.0,29.71,East,86,0.0,3.0,45,0.00,,,0.00,Wunderground v.1.15,2013-06-14 21:40:00,
2013-06-14 16:41:00,85.9,62.1,29.71,South,180,7.0,8.0,45,0.00,,,0.00,Wunderground v.1.15,2013-06-14 21:41:00,
2013-06-14 16:43:00,85.9,62.1,29.71,NW,318,4.0,8.0,45,0.00,,,0.00,Wunderground v.1.15,2013-06-14 21:43:00,
2013-06-14 16:45:00,85.8,62.0,29.71,SSE,150,0.0,1.0,45,0.00,,,0.00,Wunderground v.1.15,2013-06-14 21:45:00,
2013-06-14 16:46:00,85.8,62.6,29.71,South,171,0.0,1.0,46,0.00,,,0.00,Wunderground v.1.15,2013-06-14 21:46:00,
2013-06-14 16:48:00,85.7,61.9,29.71,South,184,0.0,4.0,45,0.00,,,0.00,Wunderground v.1.15,2013-06-14 21:48:00,
2013-06-14 16:50:00,85.7,61.9,29.71,WNW,298,0.0,8.0,45,0.00,,,0.00,Wunderground v.1.15,2013-06-14 21:50:00,
2013-06-14 16:51:00,85.7,62.5,29.71,NW,326,0.0,8.0,46,0.00,,,0.00,Wunderground v.1.15,2013-06-14 21:51:00,
2013-06-14 16:52:00,85.7,61.9,29.71,NW,325,0.0,8.0,45,0.00,,,0.00,Wunderground v.1.15,2013-06-14 21:52:00,
2013-06-14 16:53:00,85.8,62.0,29.71,SSW,207,0.0,8.0,45,0.00,,,0.00,Wunderground v.1.15,2013-06-14 21:53:00,
2013-06-14 16:55:00,85.7,61.9,29.72,SSW,207,2.0,2.0,45,0.00,,,0.00,Wunderground v.1.15,2013-06-14 21:55:00,
2013-06-14 16:56:00,85.7,62.5,29.71,NW,319,0.0,2.0,46,0.00,,,0.00,Wunderground v.1.15,2013-06-14 21:56:00,
2013-06-14 16:57:00,85.7,61.9,29.71,NW,317,0.0,2.0,45,0.00,,,0.00,Wunderground v.1.15,2013-06-14 21:57:00,
2013-06-14 16:59:00,85.6,61.8,29.71,North,351,0.0,4.0,45,0.00,,,0.00,Wunderground v.1.15,2013-06-14 21:59:00,
2013-06-14 17:00:00,85.6,63.1,29.72,NNE,28,0.0,4.0,47,0.00,,,0.00,Wunderground v.1.15,2013-06-14 22:00:00,
2013-06-14 17:01:00,85.6,63.1,29.71,NE,56,0.0,4.0,47,0.00,,,0.00,Wunderground v.1.15,2013-06-14 22:01:00,
2013-06-14 17:02:00,85.6,62.4,29.71,East,101,0.0,4.0,46,0.00,,,0.00,Wunderground v.1.15,2013-06-14 22:02:00,
2013-06-14 17:04:00,85.6,63.1,29.71,NW,326,0.0,4.0,47,0.00,,,0.00,Wunderground v.1.15,2013-06-14 22:04:00,
2013-06-14 17:06:00,85.6,63.1,29.71,NW,306,0.0,1.0,47,0.00,,,0.00,Wunderground v.1.15,2013-06-14 22:06:00,
2013-06-14 17:07:00,85.5,62.4,29.71,East,80,0.0,1.0,46,0.00,,,0.00,Wunderground v.1.15,2013-06-14 22:07:00,
2013-06-14 17:09:00,85.4,62.9,29.71,ESE,102,0.0,1.0,47,0.00,,,0.00,Wunderground v.1.15,2013-06-14 22:09:00,
2013-06-14 17:11:00,85.3,63.4,29.71,NNW,342,0.0,1.0,48,0.00,,,0.00,Wunderground v.1.15,2013-06-14 22:11:00,
2013-06-14 17:12:00,85.3,62.8,29.71,NNW,342,0.0,1.0,47,0.00,,,0.00,Wunderground v.1.15,2013-06-14 22:12:00,
2013-06-14 17:13:00,85.3,62.8,29.71,NNW,332,2.0,2.0,47,0.00,,,0.00,Wunderground v.1.15,2013-06-14 22:13:00,
2013-06-14 17:14:00,85.2,62.1,29.71,SE,134,0.0,7.0,46,0.00,,,0.00,Wunderground v.1.15,2013-06-14 22:14:00,
2013-06-14 17:15:00,85.2,61.5,29.71,ENE,63,0.0,1.0,45,0.00,,,0.00,Wunderground v.1.15,2013-06-14 22:15:00,
2013-06-14 17:17:00,85.1,62.0,29.71,North,360,1.0,11.0,46,0.00,,,0.00,Wunderground v.1.15,2013-06-14 22:17:00,
2013-06-14 17:18:00,85.0,61.9,29.71,WNW,288,2.0,11.0,46,0.00,,,0.00,Wunderground v.1.15,2013-06-14 22:18:00,
2013-06-14 17:19:00,84.9,61.8,29.71,ESE,107,2.0,11.0,46,0.00,,,0.00,Wunderground v.1.15,2013-06-14 22:19:00,
2013-06-14 17:20:00,84.9,62.4,29.72,NNW,331,2.0,11.0,47,0.00,,,0.00,Wunderground v.1.15,2013-06-14 22:20:00,
2013-06-14 17:22:00,84.9,61.8,29.72,ESE,102,0.0,11.0,46,0.00,,,0.00,Wunderground v.1.15,2013-06-14 22:22:00,
2013-06-14 17:24:00,84.8,62.3,29.72,NNW,338,2.0,11.0,47,0.00,,,0.00,Wunderground v.1.15,2013-06-14 22:24:00,
2013-06-14 17:26:00,84.8,62.3,29.72,NNW,348,0.0,2.0,47,0.00,,,0.00,Wunderground v.1.15,2013-06-14 22:26:00,
2013-06-14 17:28:00,84.7,62.2,29.72,NNW,345,4.0,4.0,47,0.00,,,0.00,Wunderground v.1.15,2013-06-14 22:28:00,
2013-06-14 17:29:00,84.7,62.2,29.72,NW,317,4.0,6.0,47,0.00,,,0.00,Wunderground v.1.15,2013-06-14 22:29:00,
2013-06-14 17:31:00,84.7,61.6,29.71,WNW,298,5.0,6.0,46,0.00,,,0.00,Wunderground v.1.15,2013-06-14 22:31:00,
2013-06-14 17:33:00,84.6,62.1,29.71,East,91,3.0,6.0,47,0.00,,,0.00,Wunderground v.1.15,2013-06-14 22:33:00,
2013-06-14 17:34:00,84.5,62.1,29.71,East,92,0.0,6.0,47,0.00,,,0.00,Wunderground v.1.15,2013-06-14 22:34:00,
2013-06-14 17:36:00,84.5,62.1,29.71,West,269,0.0,2.0,47,0.00,,,0.00,Wunderground v.1.15,2013-06-14 22:36:00,
2013-06-14 17:38:00,84.5,62.7,29.71,SW,222,0.0,2.0,48,0.00,,,0.00,Wunderground v.1.15,2013-06-14 22:38:00,
2013-06-14 17:39:00,84.5,62.1,29.71,ESE,103,0.0,5.0,47,0.00,,,0.00,Wunderground v.1.15,2013-06-14 22:39:00,
2013-06-14 17:40:00,84.4,62.0,29.71,East,98,0.0,5.0,47,0.00,,,0.00,Wunderground v.1.15,2013-06-14 22:40:00,
2013-06-14 17:41:00,84.4,62.0,29.71,NNW,341,0.0,5.0,47,0.00,,,0.00,Wunderground v.1.15,2013-06-14 22:41:00,
2013-06-14 17:42:00,84.4,61.4,29.71,NW,318,0.0,5.0,46,0.00,,,0.00,Wunderground v.1.15,2013-06-14 22:42:00,
2013-06-14 17:44:00,84.4,61.4,29.71,East,91,0.0,5.0,46,0.00,,,0.00,Wunderground v.1.15,2013-06-14 22:44:00,
2013-06-14 17:45:00,84.4,61.4,29.71,NW,319,0.0,0.0,46,0.00,,,0.00,Wunderground v.1.15,2013-06-14 22:45:00,
2013-06-14 17:46:00,84.4,60.7,29.71,NW,304,0.0,0.0,45,0.00,,,0.00,Wunderground v.1.15,2013-06-14 22:46:00,
2013-06-14 17:47:00,84.4,60.7,29.71,SSE,164,0.0,3.0,45,0.00,,,0.00,Wunderground v.1.15,2013-06-14 22:47:00,
2013-06-14 17:49:00,84.4,61.4,29.71,SSE,165,0.0,3.0,46,0.00,,,0.00,Wunderground v.1.15,2013-06-14 22:49:00,
2013-06-14 17:50:00,84.3,61.3,29.71,WNW,292,0.0,3.0,46,0.00,,,0.00,Wunderground v.1.15,2013-06-14 22:50:00,
2013-06-14 17:51:00,84.4,61.4,29.71,SSW,196,4.0,4.0,46,0.00,,,0.00,Wunderground v.1.15,2013-06-14 22:51:00,
2013-06-14 17:52:00,84.4,62.0,29.71,SSW,211,0.0,4.0,47,0.00,,,0.00,Wunderground v.1.15,2013-06-14 22:52:00,
2013-06-14 17:53:00,84.4,62.0,29.71,SSW,212,0.0,4.0,47,0.00,,,0.00,Wunderground v.1.15,2013-06-14 22:53:00,
2013-06-14 17:54:00,84.4,62.0,29.71,East,94,0.0,4.0,47,0.00,,,0.00,Wunderground v.1.15,2013-06-14 22:54:00,
2013-06-14 17:55:00,84.4,62.6,29.71,ENE,71,0.0,0.0,48,0.00,,,0.00,Wunderground v.1.15,2013-06-14 22:55:00,
2013-06-14 17:56:00,84.4,61.4,29.71,SSW,194,0.0,0.0,46,0.00,,,0.00,Wunderground v.1.15,2013-06-14 22:56:00,
2013-06-14 17:58:00,84.3,61.9,29.71,SSE,149,0.0,0.0,47,0.00,,,0.00,Wunderground v.1.15,2013-06-14 22:58:00,
2013-06-14 18:00:00,84.3,61.9,29.71,SSE,149,0.0,0.0,47,0.00,,,0.00,Wunderground v.1.15,2013-06-14 23:00:00,
2013-06-14 18:01:00,84.3,61.9,29.71,SSE,149,0.0,0.0,47,0.00,,,0.00,Wunderground v.1.15,2013-06-14 23:01:00,
2013-06-14 18:03:00,84.3,61.9,29.71,WNW,283,0.0,1.0,47,0.00,,,0.00,Wunderground v.1.15,2013-06-14 23:03:00,
2013-06-14 18:04:00,84.3,61.9,29.71,WNW,283,0.0,1.0,47,0.00,,,0.00,Wunderground v.1.15,2013-06-14 23:04:00,
2013-06-14 18:05:00,84.2,61.8,29.71,WNW,291,0.0,0.0,47,0.00,,,0.00,Wunderground v.1.15,2013-06-14 23:05:00,
2013-06-14 18:06:00,84.2,61.8,29.71,ENE,70,0.0,1.0,47,0.00,,,0.00,Wunderground v.1.15,2013-06-14 23:06:00,
2013-06-14 18:09:00,84.2,61.8,29.72,ENE,76,0.0,3.0,47,0.00,,,0.00,Wunderground v.1.15,2013-06-14 23:09:00,
2013-06-14 18:11:00,84.1,61.7,29.72,NNW,345,0.0,3.0,47,0.00,,,0.00,Wunderground v.1.15,2013-06-14 23:11:00,
2013-06-14 18:12:00,84.1,61.1,29.72,North,360,0.0,3.0,46,0.00,,,0.00,Wunderground v.1.15,2013-06-14 23:12:00,
2013-06-14 18:14:00,84.1,61.1,29.71,NW,309,0.0,3.0,46,0.00,,,0.00,Wunderground v.1.15,2013-06-14 23:14:00,
2013-06-14 18:16:00,84.0,61.6,29.71,SSW,209,0.0,5.0,47,0.00,,,0.00,Wunderground v.1.15,2013-06-14 23:16:00,
2013-06-14 18:17:00,84.0,61.6,29.71,West,268,0.0,5.0,47,0.00,,,0.00,Wunderground v.1.15,2013-06-14 23:17:00,
2013-06-14 18:18:00,84.0,61.6,29.72,WNW,284,0.0,5.0,47,0.00,,,0.00,Wunderground v.1.15,2013-06-14 23:18:00,
2013-06-14 18:19:00,84.0,61.6,29.72,North,350,0.0,5.0,47,0.00,,,0.00,Wunderground v.1.15,2013-06-14 23:19:00,
2013-06-14 18:21:00,84.0,61.6,29.71,NW,316,3.0,5.0,47,0.00,,,0.00,Wunderground v.1.15,2013-06-14 23:21:00,
2013-06-14 18:22:00,84.0,61.0,29.71,West,281,0.0,6.0,46,0.00,,,0.00,Wunderground v.1.15,2013-06-14 23:22:00,
2013-06-14 18:23:00,84.0,61.0,29.71,North,355,0.0,6.0,46,0.00,,,0.00,Wunderground v.1.15,2013-06-14 23:23:00,
2013-06-14 18:25:00,84.0,61.6,29.71,NW,319,0.0,6.0,47,0.00,,,0.00,Wunderground v.1.15,2013-06-14 23:25:00,
2013-06-14 18:26:00,83.9,61.5,29.71,NW,321,0.0,1.0,47,0.00,,,0.00,Wunderground v.1.15,2013-06-14 23:26:00,
2013-06-14 18:27:00,83.9,61.5,29.71,NW,321,0.0,1.0,47,0.00,,,0.00,Wunderground v.1.15,2013-06-14 23:27:00,
2013-06-14 18:28:00,83.9,62.1,29.71,NW,321,0.0,1.0,48,0.00,,,0.00,Wunderground v.1.15,2013-06-14 23:28:00,
2013-06-14 18:30:00,83.8,61.4,29.71,NW,313,0.0,1.0,47,0.00,,,0.00,Wunderground v.1.15,2013-06-14 23:30:00,
2013-06-14 18:32:00,83.8,61.4,29.71,WSW,244,0.0,1.0,47,0.00,,,0.00,Wunderground v.1.15,2013-06-14 23:32:00,
2013-06-14 18:33:00,83.7,61.3,29.71,SW,229,0.0,1.0,47,0.00,,,0.00,Wunderground v.1.15,2013-06-14 23:33:00,
2013-06-14 18:35:00,83.7,61.9,29.71,West,269,0.0,2.0,48,0.00,,,0.00,Wunderground v.1.15,2013-06-14 23:35:00,
2013-06-14 18:36:00,83.7,61.9,29.71,West,275,0.0,2.0,48,0.00,,,0.00,Wunderground v.1.15,2013-06-14 23:36:00,
2013-06-14 18:37:00,83.7,61.9,29.72,ESE,114,4.0,5.0,48,0.00,,,0.00,Wunderground v.1.15,2013-06-14 23:37:00,
2013-06-14 18:38:00,83.7,61.3,29.71,NNW,340,6.0,6.0,47,0.00,,,0.00,Wunderground v.1.15,2013-06-14 23:38:00,
2013-06-14 18:41:00,83.6,61.2,29.71,NW,322,0.0,6.0,47,0.00,,,0.00,Wunderground v.1.15,2013-06-14 23:41:00,
2013-06-14 18:43:00,83.6,61.8,29.72,NW,322,0.0,6.0,48,0.00,,,0.00,Wunderground v.1.15,2013-06-14 23:43:00,
2013-06-14 18:44:00,83.6,61.8,29.72,NW,310,0.0,6.0,48,0.00,,,0.00,Wunderground v.1.15,2013-06-14 23:44:00,
2013-06-14 18:46:00,83.6,61.8,29.72,WNW,303,0.0,6.0,48,0.00,,,0.00,Wunderground v.1.15,2013-06-14 23:46:00,
2013-06-14 18:47:00,83.5,61.7,29.72,South,170,0.0,6.0,48,0.00,,,0.00,Wunderground v.1.15,2013-06-14 23:47:00,
2013-06-14 18:48:00,83.5,61.7,29.72,WSW,245,5.0,6.0,48,0.00,,,0.00,Wunderground v.1.15,2013-06-14 23:48:00,
2013-06-14 18:49:00,83.5,61.7,29.71,SE,125,0.0,6.0,48,0.00,,,0.00,Wunderground v.1.15,2013-06-14 23:49:00,
2013-06-14 18:51:00,83.5,61.7,29.72,NE,53,0.0,6.0,48,0.00,,,0.00,Wunderground v.1.15,2013-06-14 23:51:00,
2013-06-14 18:52:00,83.5,61.7,29.71,NE,53,0.0,6.0,48,0.00,,,0.00,Wunderground v.1.15,2013-06-14 23:52:00,
2013-06-14 18:53:00,83.4,61.7,29.71,North,360,0.0,6.0,48,0.00,,,0.00,Wunderground v.1.15,2013-06-14 23:53:00,
2013-06-14 18:54:00,83.4,61.7,29.71,North,5,0.0,6.0,48,0.00,,,0.00,Wunderground v.1.15,2013-06-14 23:54:00,
2013-06-14 18:55:00,83.4,61.7,29.71,West,273,0.0,1.0,48,0.00,,,0.00,Wunderground v.1.15,2013-06-14 23:55:00,
2013-06-14 18:56:00,83.4,62.2,29.71,West,273,0.0,1.0,49,0.00,,,0.00,Wunderground v.1.15,2013-06-14 23:56:00,
2013-06-14 18:57:00,83.4,62.2,29.71,NNW,337,0.0,1.0,49,0.00,,,0.00,Wunderground v.1.15,2013-06-14 23:57:00,
2013-06-14 18:58:00,83.4,62.2,29.71,NNE,32,0.0,1.0,49,0.00,,,0.00,Wunderground v.1.15,2013-06-14 23:58:00,
2013-06-14 19:00:00,83.3,61.6,29.71,NNW,331,0.0,1.0,48,0.00,,,0.00,Wunderground v.1.15,2013-06-15 00:00:00,
2013-06-14 19:02:00,83.2,61.5,29.71,ESE,110,0.0,1.0,48,0.00,,,0.00,Wunderground v.1.15,2013-06-15 00:02:00,
2013-06-14 19:03:00,83.2,62.1,29.71,ENE,78,0.0,1.0,49,0.00,,,0.00,Wunderground v.1.15,2013-06-15 00:03:00,
2013-06-14 19:05:00,83.2,62.1,29.71,NNW,340,0.0,0.0,49,0.00,,,0.00,Wunderground v.1.15,2013-06-15 00:05:00,
2013-06-14 19:06:00,83.2,62.1,29.71,NNW,340,0.0,0.0,49,0.00,,,0.00,Wunderground v.1.15,2013-06-15 00:06:00,
2013-06-14 19:07:00,83.1,62.0,29.71,NNW,340,0.0,0.0,49,0.00,,,0.00,Wunderground v.1.15,2013-06-15 00:07:00,
2013-06-14 19:08:00,83.1,62.0,29.71,NNW,340,0.0,0.0,49,0.00,,,0.00,Wunderground v.1.15,2013-06-15 00:08:00,
2013-06-14 19:11:00,83.0,61.9,29.72,North,360,0.0,1.0,49,0.00,,,0.00,Wunderground v.1.15,2013-06-15 00:11:00,
2013-06-14 19:13:00,82.9,61.8,29.72,North,360,0.0,1.0,49,0.00,,,0.00,Wunderground v.1.15,2013-06-15 00:13:00,
2013-06-14 19:16:00,82.9,61.8,29.72,SE,134,0.0,0.0,49,0.00,,,0.00,Wunderground v.1.15,2013-06-15 00:16:00,
2013-06-14 19:17:00,82.9,61.8,29.72,SSW,192,0.0,4.0,49,0.00,,,0.00,Wunderground v.1.15,2013-06-15 00:17:00,
2013-06-14 19:18:00,82.8,62.3,29.72,SSW,192,0.0,4.0,50,0.00,,,0.00,Wunderground v.1.15,2013-06-15 00:18:00,
2013-06-14 19:19:00,82.8,62.3,29.72,SSW,192,0.0,4.0,50,0.00,,,0.00,Wunderground v.1.15,2013-06-15 00:19:00,
2013-06-14 19:22:00,82.8,62.8,29.72,SSW,192,0.0,4.0,51,0.00,,,0.00,Wunderground v.1.15,2013-06-15 00:22:00,
2013-06-14 19:24:00,82.7,62.2,29.72,SSW,192,0.0,4.0,50,0.00,,,0.00,Wunderground v.1.15,2013-06-15 00:24:00,
2013-06-14 19:25:00,82.7,62.2,29.72,ESE,117,0.0,0.0,50,0.00,,,0.00,Wunderground v.1.15,2013-06-15 00:25:00,
2013-06-14 19:27:00,82.6,62.1,29.72,SSE,154,0.0,0.0,50,0.00,,,0.00,Wunderground v.1.15,2013-06-15 00:27:00,
2013-06-14 19:28:00,82.6,62.1,29.72,SSE,153,0.0,0.0,50,0.00,,,0.00,Wunderground v.1.15,2013-06-15 00:28:00,
2013-06-14 19:29:00,82.6,62.1,29.72,SSE,153,0.0,0.0,50,0.00,,,0.00,Wunderground v.1.15,2013-06-15 00:29:00,
2013-06-14 19:30:00,82.5,63.1,29.72,SE,141,0.0,0.0,52,0.00,,,0.00,Wunderground v.1.15,2013-06-15 00:30:00,
2013-06-14 19:31:00,82.5,62.5,29.72,SE,141,0.0,0.0,51,0.00,,,0.00,Wunderground v.1.15,2013-06-15 00:31:00,
2013-06-14 19:32:00,82.5,62.5,29.72,SE,141,0.0,0.0,51,0.00,,,0.00,Wunderground v.1.15,2013-06-15 00:32:00,
2013-06-14 19:33:00,82.4,62.5,29.72,SE,142,0.0,0.0,51,0.00,,,0.00,Wunderground v.1.15,2013-06-15 00:33:00,
2013-06-14 19:34:00,82.4,62.5,29.72,SE,142,0.0,0.0,51,0.00,,,0.00,Wunderground v.1.15,2013-06-15 00:34:00,
2013-06-14 19:35:00,82.3,63.5,29.72,SE,142,0.0,0.0,53,0.00,,,0.00,Wunderground v.1.15,2013-06-15 00:35:00,
2013-06-14 19:36:00,82.3,63.5,29.72,SE,142,0.0,0.0,53,0.00,,,0.00,Wunderground v.1.15,2013-06-15 00:36:00,
2013-06-14 19:37:00,82.1,63.8,29.72,SE,142,0.0,0.0,54,0.00,,,0.00,Wunderground v.1.15,2013-06-15 00:37:00,
2013-06-14 19:38:00,82.1,63.8,29.72,SE,142,0.0,0.0,54,0.00,,,0.00,Wunderground v.1.15,2013-06-15 00:38:00,
2013-06-14 19:39:00,82.0,63.7,29.72,SE,142,0.0,0.0,54,0.00,,,0.00,Wunderground v.1.15,2013-06-15 00:39:00,
2013-06-14 19:40:00,82.0,64.8,29.72,SE,141,0.0,0.0,56,0.00,,,0.00,Wunderground v.1.15,2013-06-15 00:40:00,
2013-06-14 19:41:00,81.9,65.7,29.72,SE,141,0.0,0.0,58,0.00,,,0.00,Wunderground v.1.15,2013-06-15 00:41:00,
2013-06-14 19:43:00,81.7,65.0,29.72,SE,141,0.0,0.0,57,0.00,,,0.00,Wunderground v.1.15,2013-06-15 00:43:00,
2013-06-14 19:45:00,81.4,63.2,29.72,SE,142,0.0,0.0,54,0.00,,,0.00,Wunderground v.1.15,2013-06-15 00:45:00,
2013-06-14 19:46:00,81.3,64.6,29.72,SE,142,0.0,0.0,57,0.00,,,0.00,Wunderground v.1.15,2013-06-15 00:46:00,
2013-06-14 19:49:00,81.1,63.4,29.72,SE,141,0.0,0.0,55,0.00,,,0.00,Wunderground v.1.15,2013-06-15 00:49:00,
2013-06-14 19:51:00,80.9,64.2,29.72,SE,142,0.0,0.0,57,0.00,,,0.00,Wunderground v.1.15,2013-06-15 00:51:00,
2013-06-14 19:52:00,80.9,65.2,29.72,SE,141,0.0,0.0,59,0.00,,,0.00,Wunderground v.1.15,2013-06-15 00:52:00,
2013-06-14 19:54:00,80.6,65.4,29.72,SE,142,0.0,0.0,60,0.00,,,0.00,Wunderground v.1.15,2013-06-15 00:54:00,
2013-06-14 19:56:00,80.4,65.7,29.72,SE,141,0.0,0.0,61,0.00,,,0.00,Wunderground v.1.15,2013-06-15 00:56:00,
2013-06-14 19:57:00,80.3,65.6,29.72,SE,141,0.0,0.0,61,0.00,,,0.00,Wunderground v.1.15,2013-06-15 00:57:00,
2013-06-14 20:00:00,79.9,65.7,29.72,SE,142,0.0,0.0,62,0.00,,,0.00,Wunderground v.1.15,2013-06-15 01:00:00,
2013-06-14 20:01:00,79.8,65.2,29.72,SE,142,0.0,0.0,61,0.00,,,0.00,Wunderground v.1.15,2013-06-15 01:01:00,
2013-06-14 20:02:00,79.6,65.4,29.72,SE,141,0.0,0.0,62,0.00,,,0.00,Wunderground v.1.15,2013-06-15 01:02:00,
2013-06-14 20:05:00,78.8,64.7,29.73,SE,142,0.0,0.0,62,0.00,,,0.00,Wunderground v.1.15,2013-06-15 01:05:00,
2013-06-14 20:06:00,78.8,64.7,29.73,SE,142,0.0,0.0,62,0.00,,,0.00,Wunderground v.1.15,2013-06-15 01:06:00,
2013-06-14 20:07:00,78.6,64.9,29.73,SE,141,0.0,0.0,63,0.00,,,0.00,Wunderground v.1.15,2013-06-15 01:07:00,
2013-06-14 20:11:00,77.8,64.6,29.73,SE,141,0.0,0.0,64,0.00,,,0.00,Wunderground v.1.15,2013-06-15 01:11:00,
2013-06-14 20:12:00,77.5,64.8,29.73,SE,141,0.0,0.0,65,0.00,,,0.00,Wunderground v.1.15,2013-06-15 01:12:00,
2013-06-14 20:14:00,77.2,64.5,29.73,SE,141,0.0,0.0,65,0.00,,,0.00,Wunderground v.1.15,2013-06-15 01:14:00,
2013-06-14 20:16:00,76.9,64.7,29.73,SSE,155,0.0,0.0,66,0.00,,,0.00,Wunderground v.1.15,2013-06-15 01:16:00,
2013-06-14 20:17:00,76.6,64.4,29.73,SSE,155,0.0,0.0,66,0.00,,,0.00,Wunderground v.1.15,2013-06-15 01:17:00,
2013-06-14 20:20:00,76.3,64.5,29.73,SSE,155,0.0,0.0,67,0.00,,,0.00,Wunderground v.1.15,2013-06-15 01:20:00,
2013-06-14 20:21:00,76.2,64.4,29.73,SSE,155,0.0,0.0,67,0.00,,,0.00,Wunderground v.1.15,2013-06-15 01:21:00,
2013-06-14 20:22:00,76.0,63.4,29.73,SSE,155,0.0,0.0,65,0.00,,,0.00,Wunderground v.1.15,2013-06-15 01:22:00,
2013-06-14 20:25:00,75.9,64.6,29.73,SSE,155,0.0,0.0,68,0.00,,,0.00,Wunderground v.1.15,2013-06-15 01:25:00,
2013-06-14 20:27:00,75.8,64.5,29.73,SSE,155,0.0,0.0,68,0.00,,,0.00,Wunderground v.1.15,2013-06-15 01:27:00,
2013-06-14 20:28:00,75.7,64.4,29.73,SSE,155,0.0,0.0,68,0.00,,,0.00,Wunderground v.1.15,2013-06-15 01:28:00,
2013-06-14 20:30:00,75.5,64.6,29.73,SSE,155,0.0,0.0,69,0.00,,,0.00,Wunderground v.1.15,2013-06-15 01:30:00,
2013-06-14 20:32:00,75.3,64.8,29.73,SSE,155,0.0,0.0,70,0.00,,,0.00,Wunderground v.1.15,2013-06-15 01:32:00,
2013-06-14 20:33:00,75.3,64.8,29.73,SSE,155,0.0,0.0,70,0.00,,,0.00,Wunderground v.1.15,2013-06-15 01:33:00,
2013-06-14 20:35:00,75.1,64.6,29.73,SSE,155,0.0,0.0,70,0.00,,,0.00,Wunderground v.1.15,2013-06-15 01:35:00,
2013-06-14 20:37:00,74.8,64.4,29.73,SSE,155,0.0,0.0,70,0.00,,,0.00,Wunderground v.1.15,2013-06-15 01:37:00,
2013-06-14 20:38:00,74.7,64.3,29.73,SSE,155,0.0,0.0,70,0.00,,,0.00,Wunderground v.1.15,2013-06-15 01:38:00,
2013-06-14 20:41:00,74.5,64.5,29.73,SSE,155,0.0,0.0,71,0.00,,,0.00,Wunderground v.1.15,2013-06-15 01:41:00,
2013-06-14 20:43:00,74.2,64.6,29.73,SSE,155,0.0,0.0,72,0.00,,,0.00,Wunderground v.1.15,2013-06-15 01:43:00,
2013-06-14 20:44:00,74.2,64.6,29.73,SSE,155,0.0,0.0,72,0.00,,,0.00,Wunderground v.1.15,2013-06-15 01:44:00,
2013-06-14 20:47:00,74.0,64.4,29.73,SSE,155,0.0,0.0,72,0.00,,,0.00,Wunderground v.1.15,2013-06-15 01:47:00,
2013-06-14 20:48:00,73.9,64.7,29.72,SSE,155,0.0,0.0,73,0.00,,,0.00,Wunderground v.1.15,2013-06-15 01:48:00,
2013-06-14 20:49:00,73.8,64.6,29.73,SSE,155,0.0,0.0,73,0.00,,,0.00,Wunderground v.1.15,2013-06-15 01:49:00,
2013-06-14 20:50:00,73.7,64.5,29.73,SSE,155,0.0,0.0,73,0.00,,,0.00,Wunderground v.1.15,2013-06-15 01:50:00,
2013-06-14 20:52:00,73.5,64.7,29.72,SSE,155,0.0,0.0,74,0.00,,,0.00,Wunderground v.1.15,2013-06-15 01:52:00,
2013-06-14 20:54:00,73.5,64.7,29.72,SSE,155,0.0,0.0,74,0.00,,,0.00,Wunderground v.1.15,2013-06-15 01:54:00,
2013-06-14 20:55:00,73.4,64.6,29.72,SSE,155,0.0,0.0,74,0.00,,,0.00,Wunderground v.1.15,2013-06-15 01:55:00,
2013-06-14 20:58:00,73.2,64.4,29.72,SSE,155,0.0,0.0,74,0.00,,,0.00,Wunderground v.1.15,2013-06-15 01:58:00,
2013-06-14 20:59:00,73.1,63.9,29.73,SSE,155,0.0,0.0,73,0.00,,,0.00,Wunderground v.1.15,2013-06-15 01:59:00,
2013-06-14 21:00:00,73.1,64.3,29.72,SSE,155,0.0,0.0,74,0.00,,,0.00,Wunderground v.1.15,2013-06-15 02:00:00,
2013-06-14 21:04:00,72.8,64.4,29.72,SSE,155,0.0,0.0,75,0.00,,,0.00,Wunderground v.1.15,2013-06-15 02:04:00,
2013-06-14 21:05:00,72.7,64.3,29.72,SSE,155,0.0,0.0,75,0.00,,,0.00,Wunderground v.1.15,2013-06-15 02:05:00,
2013-06-14 21:09:00,72.4,64.0,29.73,SSE,155,0.0,0.0,75,0.00,,,0.00,Wunderground v.1.15,2013-06-15 02:09:00,
2013-06-14 21:10:00,72.3,63.9,29.73,SSE,155,0.0,0.0,75,0.00,,,0.00,Wunderground v.1.15,2013-06-15 02:10:00,
2013-06-14 21:14:00,72.0,64.0,29.73,SSE,155,0.0,0.0,76,0.00,,,0.00,Wunderground v.1.15,2013-06-15 02:14:00,
2013-06-14 21:15:00,72.0,64.0,29.73,SSE,155,0.0,0.0,76,0.00,,,0.00,Wunderground v.1.15,2013-06-15 02:15:00,
2013-06-14 21:16:00,71.9,63.9,29.73,SSE,155,0.0,0.0,76,0.00,,,0.00,Wunderground v.1.15,2013-06-15 02:16:00,
2013-06-14 21:19:00,71.7,64.1,29.73,SSE,155,0.0,0.0,77,0.00,,,0.00,Wunderground v.1.15,2013-06-15 02:19:00,
2013-06-14 21:20:00,71.7,64.1,29.73,SSE,155,0.0,0.0,77,0.00,,,0.00,Wunderground v.1.15,2013-06-15 02:20:00,
2013-06-14 21:21:00,71.6,64.0,29.73,SSE,155,0.0,0.0,77,0.00,,,0.00,Wunderground v.1.15,2013-06-15 02:21:00,
2013-06-14 21:25:00,71.4,63.8,29.73,SSE,155,0.0,0.0,77,0.00,,,0.00,Wunderground v.1.15,2013-06-15 02:25:00,
2013-06-14 21:26:00,71.3,63.7,29.73,SSE,155,0.0,0.0,77,0.00,,,0.00,Wunderground v.1.15,2013-06-15 02:26:00,
2013-06-14 21:30:00,71.1,63.9,29.73,SSE,155,0.0,0.0,78,0.00,,,0.00,Wunderground v.1.15,2013-06-15 02:30:00,
2013-06-14 21:31:00,71.1,64.3,29.73,SSE,155,0.0,0.0,79,0.00,,,0.00,Wunderground v.1.15,2013-06-15 02:31:00,
2013-06-14 21:35:00,70.9,64.1,29.74,SSE,155,0.0,0.0,79,0.00,,,0.00,Wunderground v.1.15,2013-06-15 02:35:00,
2013-06-14 21:36:00,70.9,64.4,29.74,SSE,155,0.0,0.0,80,0.00,,,0.00,Wunderground v.1.15,2013-06-15 02:36:00,
2013-06-14 21:37:00,70.9,64.4,29.74,SSE,155,0.0,0.0,80,0.00,,,0.00,Wunderground v.1.15,2013-06-15 02:37:00,
2013-06-14 21:38:00,70.8,64.3,29.74,SSE,155,0.0,0.0,80,0.00,,,0.00,Wunderground v.1.15,2013-06-15 02:38:00,
2013-06-14 21:41:00,70.7,64.2,29.74,SSE,155,0.0,0.0,80,0.00,,,0.00,Wunderground v.1.15,2013-06-15 02:41:00,
2013-06-14 21:42:00,70.7,64.2,29.74,SSE,155,0.0,0.0,80,0.00,,,0.00,Wunderground v.1.15,2013-06-15 02:42:00,
2013-06-14 21:43:00,70.6,64.5,29.74,SSE,155,0.0,0.0,81,0.00,,,0.00,Wunderground v.1.15,2013-06-15 02:43:00,
2013-06-14 21:44:00,70.6,64.5,29.74,SSE,155,0.0,0.0,81,0.00,,,0.00,Wunderground v.1.15,2013-06-15 02:44:00,
2013-06-14 21:46:00,70.5,64.4,29.74,SSE,155,0.0,0.0,81,0.00,,,0.00,Wunderground v.1.15,2013-06-15 02:46:00,
2013-06-14 21:47:00,70.4,63.9,29.74,SSE,155,0.0,0.0,80,0.00,,,0.00,Wunderground v.1.15,2013-06-15 02:47:00,
2013-06-14 21:49:00,70.4,63.9,29.74,SSE,155,0.0,0.0,80,0.00,,,0.00,Wunderground v.1.15,2013-06-15 02:49:00,
2013-06-14 21:51:00,70.3,64.2,29.75,SSE,155,0.0,0.0,81,0.00,,,0.00,Wunderground v.1.15,2013-06-15 02:51:00,
2013-06-14 21:52:00,70.2,64.1,29.75,SSE,155,0.0,0.0,81,0.00,,,0.00,Wunderground v.1.15,2013-06-15 02:52:00,
2013-06-14 21:54:00,70.1,64.0,29.75,SSE,155,0.0,0.0,81,0.00,,,0.00,Wunderground v.1.15,2013-06-15 02:54:00,
2013-06-14 21:57:00,70.0,63.9,29.74,SSE,155,0.0,0.0,81,0.00,,,0.00,Wunderground v.1.15,2013-06-15 02:57:00,
2013-06-14 21:59:00,69.9,63.8,29.74,SSE,155,0.0,0.0,81,0.00,,,0.00,Wunderground v.1.15,2013-06-15 02:59:00,
2013-06-14 22:00:00,69.8,63.7,29.74,SSE,155,0.0,0.0,81,0.00,,,0.00,Wunderground v.1.15,2013-06-15 03:00:00,
2013-06-14 22:02:00,69.8,64.1,29.75,SSE,155,0.0,0.0,82,0.00,,,0.00,Wunderground v.1.15,2013-06-15 03:02:00,
2013-06-14 22:04:00,69.7,64.3,29.75,SSE,155,0.0,0.0,83,0.00,,,0.00,Wunderground v.1.15,2013-06-15 03:04:00,
2013-06-14 22:05:00,69.6,64.2,29.75,SSE,155,0.0,0.0,83,0.00,,,0.00,Wunderground v.1.15,2013-06-15 03:05:00,
2013-06-14 22:07:00,69.5,64.1,29.75,SSE,155,0.0,0.0,83,0.00,,,0.00,Wunderground v.1.15,2013-06-15 03:07:00,
2013-06-14 22:08:00,69.4,64.0,29.75,SSE,155,0.0,0.0,83,0.00,,,0.00,Wunderground v.1.15,2013-06-15 03:08:00,
2013-06-14 22:10:00,69.3,63.6,29.75,SSE,155,0.0,0.0,82,0.00,,,0.00,Wunderground v.1.15,2013-06-15 03:10:00,
2013-06-14 22:13:00,69.1,63.7,29.75,SSE,155,0.0,0.0,83,0.00,,,0.00,Wunderground v.1.15,2013-06-15 03:13:00,
2013-06-14 22:15:00,69.0,63.6,29.75,SSE,155,0.0,0.0,83,0.00,,,0.00,Wunderground v.1.15,2013-06-15 03:15:00,
2013-06-14 22:16:00,69.0,63.6,29.75,SSE,155,0.0,0.0,83,0.00,,,0.00,Wunderground v.1.15,2013-06-15 03:16:00,
2013-06-14 22:18:00,69.0,64.0,29.75,SSE,155,0.0,0.0,84,0.00,,,0.00,Wunderground v.1.15,2013-06-15 03:18:00,
2013-06-14 22:19:00,69.0,64.0,29.75,SSE,155,0.0,0.0,84,0.00,,,0.00,Wunderground v.1.15,2013-06-15 03:19:00,
2013-06-14 22:20:00,68.9,63.9,29.75,SSE,155,0.0,0.0,84,0.00,,,0.00,Wunderground v.1.15,2013-06-15 03:20:00,
2013-06-14 22:21:00,69.0,64.0,29.75,SSE,155,0.0,0.0,84,0.00,,,0.00,Wunderground v.1.15,2013-06-15 03:21:00,
2013-06-14 22:23:00,68.9,63.9,29.76,SSE,155,0.0,0.0,84,0.00,,,0.00,Wunderground v.1.15,2013-06-15 03:23:00,
2013-06-14 22:25:00,68.8,63.8,29.75,SSE,155,0.0,0.0,84,0.00,,,0.00,Wunderground v.1.15,2013-06-15 03:25:00,
2013-06-14 22:26:00,68.8,63.8,29.76,SSE,155,0.0,0.0,84,0.00,,,0.00,Wunderground v.1.15,2013-06-15 03:26:00,
2013-06-14 22:28:00,68.6,63.6,29.76,SSE,155,0.0,0.0,84,0.00,,,0.00,Wunderground v.1.15,2013-06-15 03:28:00,
2013-06-14 22:30:00,68.6,63.6,29.76,SSE,155,0.0,0.0,84,0.00,,,0.00,Wunderground v.1.15,2013-06-15 03:30:00,
2013-06-14 22:31:00,68.6,63.6,29.76,SSE,155,0.0,0.0,84,0.00,,,0.00,Wunderground v.1.15,2013-06-15 03:31:00,
2013-06-14 22:33:00,68.5,63.8,29.76,SSE,155,0.0,0.0,85,0.00,,,0.00,Wunderground v.1.15,2013-06-15 03:33:00,
2013-06-14 22:35:00,68.5,63.8,29.76,SSE,155,0.0,0.0,85,0.00,,,0.00,Wunderground v.1.15,2013-06-15 03:35:00,
2013-06-14 22:36:00,68.4,63.7,29.76,SSE,155,0.0,0.0,85,0.00,,,0.00,Wunderground v.1.15,2013-06-15 03:36:00,
2013-06-14 22:37:00,68.4,63.7,29.76,SSE,155,0.0,0.0,85,0.00,,,0.00,Wunderground v.1.15,2013-06-15 03:37:00,
2013-06-14 22:38:00,68.4,63.7,29.76,SSE,155,0.0,0.0,85,0.00,,,0.00,Wunderground v.1.15,2013-06-15 03:38:00,
2013-06-14 22:41:00,68.3,63.6,29.76,SSE,155,0.0,0.0,85,0.00,,,0.00,Wunderground v.1.15,2013-06-15 03:41:00,
2013-06-14 22:42:00,68.2,63.5,29.76,SSE,155,0.0,0.0,85,0.00,,,0.00,Wunderground v.1.15,2013-06-15 03:42:00,
2013-06-14 22:43:00,68.2,63.5,29.77,SSE,155,0.0,0.0,85,0.00,,,0.00,Wunderground v.1.15,2013-06-15 03:43:00,
2013-06-14 22:47:00,68.0,63.7,29.77,SSE,155,0.0,0.0,86,0.00,,,0.00,Wunderground v.1.15,2013-06-15 03:47:00,
2013-06-14 22:48:00,68.1,63.8,29.77,SSE,155,0.0,0.0,86,0.00,,,0.00,Wunderground v.1.15,2013-06-15 03:48:00,
2013-06-14 22:50:00,68.0,63.7,29.77,SSE,155,0.0,0.0,86,0.00,,,0.00,Wunderground v.1.15,2013-06-15 03:50:00,
2013-06-14 22:52:00,67.9,63.6,29.77,SSE,155,0.0,0.0,86,0.00,,,0.00,Wunderground v.1.15,2013-06-15 03:52:00,
2013-06-14 22:53:00,67.9,63.6,29.77,SSE,155,0.0,0.0,86,0.00,,,0.00,Wunderground v.1.15,2013-06-15 03:53:00,
2013-06-14 22:55:00,67.9,63.6,29.77,SSE,155,0.0,0.0,86,0.00,,,0.00,Wunderground v.1.15,2013-06-15 03:55:00,
2013-06-14 22:56:00,67.8,63.5,29.77,SSE,155,0.0,0.0,86,0.00,,,0.00,Wunderground v.1.15,2013-06-15 03:56:00,
2013-06-14 22:57:00,67.8,63.5,29.77,SSE,155,0.0,0.0,86,0.00,,,0.00,Wunderground v.1.15,2013-06-15 03:57:00,
2013-06-14 22:58:00,67.7,63.4,29.77,SSE,155,0.0,0.0,86,0.00,,,0.00,Wunderground v.1.15,2013-06-15 03:58:00,
2013-06-14 23:01:00,67.7,63.4,29.77,SSE,155,0.0,0.0,86,0.00,,,0.00,Wunderground v.1.15,2013-06-15 04:01:00,
2013-06-14 23:02:00,67.7,63.4,29.77,SSE,155,0.0,0.0,86,0.00,,,0.00,Wunderground v.1.15,2013-06-15 04:02:00,
2013-06-14 23:06:00,67.6,63.6,29.77,SSE,155,0.0,0.0,87,0.00,,,0.00,Wunderground v.1.15,2013-06-15 04:06:00,
2013-06-14 23:07:00,67.6,63.6,29.77,SSE,155,0.0,0.0,87,0.00,,,0.00,Wunderground v.1.15,2013-06-15 04:07:00,
2013-06-14 23:11:00,67.6,63.9,29.77,SSE,155,0.0,0.0,88,0.00,,,0.00,Wunderground v.1.15,2013-06-15 04:11:00,
2013-06-14 23:12:00,67.6,63.9,29.77,SSE,155,0.0,0.0,88,0.00,,,0.00,Wunderground v.1.15,2013-06-15 04:12:00,
2013-06-14 23:16:00,67.4,63.4,29.78,SSE,155,0.0,0.0,87,0.00,,,0.00,Wunderground v.1.15,2013-06-15 04:16:00,
2013-06-14 23:17:00,67.4,63.4,29.78,SSE,155,0.0,0.0,87,0.00,,,0.00,Wunderground v.1.15,2013-06-15 04:17:00,
2013-06-14 23:22:00,67.3,63.3,29.78,SSE,155,0.0,0.0,87,0.00,,,0.00,Wunderground v.1.15,2013-06-15 04:22:00,
2013-06-14 23:23:00,67.2,63.2,29.78,SSE,155,0.0,0.0,87,0.00,,,0.00,Wunderground v.1.15,2013-06-15 04:23:00,
2013-06-14 23:27:00,67.1,63.4,29.78,SSE,155,0.0,0.0,88,0.00,,,0.00,Wunderground v.1.15,2013-06-15 04:27:00,
2013-06-14 23:28:00,67.1,63.4,29.78,SSE,155,0.0,0.0,88,0.00,,,0.00,Wunderground v.1.15,2013-06-15 04:28:00,
2013-06-14 23:32:00,67.0,63.3,29.78,SSE,155,0.0,0.0,88,0.00,,,0.00,Wunderground v.1.15,2013-06-15 04:32:00,
2013-06-14 23:33:00,67.0,63.3,29.78,SSE,155,0.0,0.0,88,0.00,,,0.00,Wunderground v.1.15,2013-06-15 04:33:00,
2013-06-14 23:37:00,66.9,63.2,29.78,SSE,155,0.0,0.0,88,0.00,,,0.00,Wunderground v.1.15,2013-06-15 04:37:00,
2013-06-14 23:38:00,66.9,63.2,29.78,SSE,155,0.0,0.0,88,0.00,,,0.00,Wunderground v.1.15,2013-06-15 04:38:00,
2013-06-14 23:39:00,66.8,63.1,29.78,SSE,155,0.0,0.0,88,0.00,,,0.00,Wunderground v.1.15,2013-06-15 04:39:00,
2013-06-14 23:42:00,66.8,63.5,29.79,SSE,155,0.0,0.0,89,0.00,,,0.00,Wunderground v.1.15,2013-06-15 04:42:00,
2013-06-14 23:43:00,66.8,63.5,29.79,SSE,155,0.0,0.0,89,0.00,,,0.00,Wunderground v.1.15,2013-06-15 04:43:00,
2013-06-14 23:44:00,66.8,63.5,29.79,SSE,155,0.0,0.0,89,0.00,,,0.00,Wunderground v.1.15,2013-06-15 04:44:00,
2013-06-14 23:48:00,66.7,63.4,29.78,SSE,155,0.0,0.0,89,0.00,,,0.00,Wunderground v.1.15,2013-06-15 04:48:00,
2013-06-14 23:49:00,66.6,63.3,29.78,SSE,155,0.0,0.0,89,0.00,,,0.00,Wunderground v.1.15,2013-06-15 04:49:00,
2013-06-14 23:50:00,66.6,63.3,29.78,SSE,155,0.0,0.0,89,0.00,,,0.00,Wunderground v.1.15,2013-06-15 04:50:00,
2013-06-14 23:53:00,66.6,63.3,29.78,SSE,155,0.0,0.0,89,0.00,,,0.00,Wunderground v.1.15,2013-06-15 04:53:00,
2013-06-14 23:54:00,66.6,63.3,29.78,SSE,155,0.0,0.0,89,0.00,,,0.00,Wunderground v.1.15,2013-06-15 04:54:00,
2013-06-14 23:55:00,66.5,63.2,29.78,SSE,155,0.0,0.0,89,0.00,,,0.00,Wunderground v.1.15,2013-06-15 04:55:00,
2013-06-14 23:58:00,66.5,63.2,29.78,SSE,155,0.0,0.0,89,0.00,,,0.00,Wunderground v.1.15,2013-06-15 04:58:00,
2013-06-14 23:59:00,66.5,63.2,29.78,SSE,155,0.0,0.0,89,0.00,,,0.00,Wunderground v.1.15,2013-06-15 04:59:00,